Wetterdaten: aktuell Mittwoch, 11.12.2019 20:49
Datum Zeit Temp. A. Feuchte A. Luftdruck Regen Wind Richtung Richtung Taupunkt Windchill
11.12.2019 20:49 -5,2 C 87 % 1009,6 hPa 0,0 l/m 0,0 km/h (0 Bft) O 101 -7,0 C -5,2 C
11.12.2019 20:48 -5,2 C 87 % 1009,6 hPa 0,0 l/m 0,0 km/h (0 Bft) NO 36 -7,0 C -5,2 C
11.12.2019 20:47 -5,2 C 87 % 1009,6 hPa 0,0 l/m 0,0 km/h (0 Bft) O-NO 67 -7,0 C -5,2 C
11.12.2019 20:46 -5,2 C 87 % 1009,6 hPa 0,0 l/m 0,0 km/h (0 Bft) O-NO 67 -7,0 C -5,2 C
11.12.2019 20:45 -5,2 C 87 % 1009,6 hPa 0,0 l/m 0,0 km/h (0 Bft) O-NO 76 -7,0 C -5,2 C
11.12.2019 20:44 -5,2 C 87 % 1009,6 hPa 0,0 l/m 0,0 km/h (0 Bft) O 92 -7,0 C -5,2 C
11.12.2019 20:43 -5,2 C 87 % 1009,6 hPa 0,0 l/m 0,0 km/h (0 Bft) O 83 -7,0 C -5,2 C
11.12.2019 20:42 -5,2 C 87 % 1009,6 hPa 0,0 l/m 0,0 km/h (0 Bft) O 86 -7,0 C -5,2 C
11.12.2019 20:41 -5,2 C 87 % 1009,7 hPa 0,0 l/m 0,0 km/h (0 Bft) O 86 -7,0 C -5,2 C
11.12.2019 20:40 -5,2 C 87 % 1009,7 hPa 0,0 l/m 0,0 km/h (0 Bft) O-SO 103 -7,0 C -5,2 C
11.12.2019 20:39 -5,3 C 87 % 1009,7 hPa 0,0 l/m 0,0 km/h (0 Bft) O-NO 59 -7,1 C -5,3 C
11.12.2019 20:38 -5,3 C 87 % 1009,7 hPa 0,0 l/m 0,0 km/h (0 Bft) NO 49 -7,1 C -5,3 C
11.12.2019 20:37 -5,3 C 87 % 1009,7 hPa 0,0 l/m 0,0 km/h (0 Bft) NO 48 -7,1 C -5,3 C
11.12.2019 20:36 -5,3 C 87 % 1009,7 hPa 0,0 l/m 0,0 km/h (0 Bft) O 86 -7,1 C -5,3 C
11.12.2019 20:35 -5,3 C 87 % 1009,8 hPa 0,0 l/m 0,0 km/h (0 Bft) O 86 -7,1 C -5,3 C
11.12.2019 20:34 -5,3 C 87 % 1009,8 hPa 0,0 l/m 0,0 km/h (0 Bft) O 93 -7,1 C -5,3 C
11.12.2019 20:33 -5,3 C 87 % 1009,8 hPa 0,0 l/m 0,0 km/h (0 Bft) O 94 -7,1 C -5,3 C
11.12.2019 20:32 -5,3 C 87 % 1009,8 hPa 0,0 l/m 0,0 km/h (0 Bft) O 93 -7,1 C -5,3 C
11.12.2019 20:30 -5,4 C 87 % 1009,9 hPa 0,0 l/m 0,0 km/h (0 Bft) O 94 -7,2 C -5,4 C
11.12.2019 20:29 -5,4 C 87 % 1009,9 hPa 0,0 l/m 0,0 km/h (0 Bft) O 90 -7,2 C -5,4 C
11.12.2019 20:28 -5,4 C 87 % 1009,9 hPa 0,0 l/m 0,0 km/h (0 Bft) O-SO 109 -7,2 C -5,4 C
11.12.2019 20:27 -5,5 C 87 % 1009,9 hPa 0,0 l/m 0,0 km/h (0 Bft) O-SO 109 -7,3 C -5,5 C
11.12.2019 20:26 -5,6 C 87 % 1009,9 hPa 0,0 l/m 0,0 km/h (0 Bft) O-NO 73 -7,4 C -5,6 C
11.12.2019 20:25 -5,6 C 87 % 1009,9 hPa 0,0 l/m 0,0 km/h (0 Bft) O 84 -7,4 C -5,6 C
11.12.2019 20:23 -5,7 C 87 % 1009,8 hPa 0,0 l/m 0,0 km/h (0 Bft) O 83 -7,5 C -5,7 C
11.12.2019 20:22 -5,7 C 86 % 1009,9 hPa 0,0 l/m 0,0 km/h (0 Bft) O 83 -7,7 C -5,7 C
11.12.2019 20:21 -5,7 C 87 % 1009,9 hPa 0,0 l/m 0,0 km/h (0 Bft) O 88 -7,5 C -5,7 C
11.12.2019 20:20 -5,7 C 86 % 1009,9 hPa 0,0 l/m 0,0 km/h (0 Bft) O 86 -7,7 C -5,7 C
11.12.2019 20:19 -5,7 C 86 % 1009,9 hPa 0,0 l/m 0,0 km/h (0 Bft) O 85 -7,7 C -5,7 C
11.12.2019 20:18 -5,7 C 86 % 1009,9 hPa 0,0 l/m 0,0 km/h (0 Bft) O 85 -7,7 C -5,7 C
11.12.2019 20:17 -5,7 C 86 % 1010,0 hPa 0,0 l/m 0,0 km/h (0 Bft) O 85 -7,7 C -5,7 C
11.12.2019 20:16 -5,7 C 86 % 1009,9 hPa 0,0 l/m 0,0 km/h (0 Bft) O 83 -7,7 C -5,7 C
11.12.2019 20:15 -5,7 C 86 % 1010,0 hPa 0,0 l/m 0,0 km/h (0 Bft) O 84 -7,7 C -5,7 C
11.12.2019 20:14 -5,7 C 86 % 1010,0 hPa 0,0 l/m 0,0 km/h (0 Bft) O 84 -7,7 C -5,7 C
11.12.2019 20:13 -5,7 C 86 % 1010,0 hPa 0,0 l/m 0,0 km/h (0 Bft) O 84 -7,7 C -5,7 C
11.12.2019 20:12 -5,7 C 86 % 1010,0 hPa 0,0 l/m 0,0 km/h (0 Bft) O 84 -7,7 C -5,7 C
11.12.2019 20:11 -5,7 C 86 % 1010,0 hPa 0,0 l/m 0,0 km/h (0 Bft) O-SO 107 -7,7 C -5,7 C
11.12.2019 20:10 -5,7 C 86 % 1010,0 hPa 0,0 l/m 0,0 km/h (0 Bft) O-SO 105 -7,7 C -5,7 C
11.12.2019 20:09 -5,7 C 85 % 1010,1 hPa 0,0 l/m 0,0 km/h (0 Bft) O-SO 105 -7,8 C -5,7 C
11.12.2019 20:08 -5,6 C 86 % 1010,0 hPa 0,0 l/m 0,0 km/h (0 Bft) O-SO 105 -7,6 C -5,6 C
11.12.2019 20:07 -5,6 C 86 % 1010,1 hPa 0,0 l/m 0,0 km/h (0 Bft) O-SO 105 -7,6 C -5,6 C
11.12.2019 20:06 -5,6 C 85 % 1010,1 hPa 0,0 l/m 0,0 km/h (0 Bft) O-SO 105 -7,7 C -5,6 C
11.12.2019 20:05 -5,6 C 85 % 1010,1 hPa 0,0 l/m 0,0 km/h (0 Bft) O-SO 106 -7,7 C -5,6 C
11.12.2019 20:04 -5,6 C 85 % 1010,1 hPa 0,0 l/m 0,0 km/h (0 Bft) O-NO 74 -7,7 C -5,6 C
11.12.2019 20:01 -5,5 C 85 % 1010,1 hPa 0,0 l/m 0,0 km/h (0 Bft) O-NO 74 -7,6 C -5,5 C
11.12.2019 20:00 -5,5 C 85 % 1010,2 hPa 0,0 l/m 0,0 km/h (0 Bft) O-NO 74 -7,6 C -5,5 C
11.12.2019 19:59 -5,4 C 85 % 1010,2 hPa 0,0 l/m 0,0 km/h (0 Bft) O-NO 74 -7,5 C -5,4 C
11.12.2019 19:58 -5,4 C 85 % 1010,1 hPa 0,0 l/m 0,0 km/h (0 Bft) O-NO 74 -7,5 C -5,4 C
11.12.2019 19:55 -5,3 C 85 % 1010,3 hPa 0,0 l/m 0,0 km/h (0 Bft) O-NO 74 -7,4 C -5,3 C
11.12.2019 19:54 -5,3 C 85 % 1010,2 hPa 0,0 l/m 0,0 km/h (0 Bft) O-NO 74 -7,4 C -5,3 C
11.12.2019 19:53 -5,3 C 85 % 1010,3 hPa 0,0 l/m 0,0 km/h (0 Bft) O-NO 74 -7,4 C -5,3 C
11.12.2019 19:52 -5,3 C 85 % 1010,2 hPa 0,0 l/m 0,0 km/h (0 Bft) O-NO 74 -7,4 C -5,3 C
11.12.2019 19:51 -5,2 C 85 % 1010,2 hPa 0,0 l/m 0,0 km/h (0 Bft) O-NO 74 -7,3 C -5,2 C
11.12.2019 19:50 -5,2 C 85 % 1010,2 hPa 0,0 l/m 0,0 km/h (0 Bft) O-NO 74 -7,3 C -5,2 C
11.12.2019 19:49 -5,2 C 85 % 1010,3 hPa 0,0 l/m 0,0 km/h (0 Bft) O-NO 74 -7,3 C -5,2 C
11.12.2019 19:48 -5,2 C 85 % 1010,3 hPa 0,0 l/m 0,0 km/h (0 Bft) O-NO 74 -7,3 C -5,2 C
11.12.2019 19:47 -5,2 C 85 % 1010,3 hPa 0,0 l/m 0,0 km/h (0 Bft) O-NO 74 -7,3 C -5,2 C
11.12.2019 19:46 -5,2 C 85 % 1010,3 hPa 0,0 l/m 0,0 km/h (0 Bft) O-NO 74 -7,3 C -5,2 C
11.12.2019 19:45 -5,1 C 85 % 1010,3 hPa 0,0 l/m 0,0 km/h (0 Bft) O-NO 74 -7,2 C -5,1 C
11.12.2019 19:44 -5,1 C 85 % 1010,3 hPa 0,0 l/m 0,0 km/h (0 Bft) O-NO 74 -7,2 C -5,1 C
11.12.2019 19:43 -5,1 C 85 % 1010,3 hPa 0,0 l/m 0,0 km/h (0 Bft) O-NO 74 -7,2 C -5,1 C
11.12.2019 19:42 -5,1 C 85 % 1010,3 hPa 0,0 l/m 0,0 km/h (0 Bft) O-NO 74 -7,2 C -5,1 C
11.12.2019 19:41 -5,0 C 85 % 1010,4 hPa 0,0 l/m 0,0 km/h (0 Bft) O-NO 74 -7,1 C -5,0 C
11.12.2019 19:40 -5,0 C 85 % 1010,4 hPa 0,0 l/m 0,0 km/h (0 Bft) O-NO 74 -7,1 C -5,0 C
11.12.2019 19:39 -5,0 C 85 % 1010,4 hPa 0,0 l/m 0,0 km/h (0 Bft) O-NO 74 -7,1 C -5,0 C
11.12.2019 19:38 -4,9 C 85 % 1010,4 hPa 0,0 l/m 0,0 km/h (0 Bft) O-NO 74 -7,0 C -4,9 C
11.12.2019 19:37 -4,9 C 84 % 1010,4 hPa 0,0 l/m 0,0 km/h (0 Bft) O-NO 74 -7,2 C -4,9 C
11.12.2019 19:36 -4,9 C 84 % 1010,4 hPa 0,0 l/m 0,0 km/h (0 Bft) O-NO 74 -7,2 C -4,9 C
11.12.2019 19:35 -4,9 C 84 % 1010,4 hPa 0,0 l/m 0,0 km/h (0 Bft) O-NO 74 -7,2 C -4,9 C
11.12.2019 19:34 -4,8 C 84 % 1010,4 hPa 0,0 l/m 0,0 km/h (0 Bft) O-NO 75 -7,1 C -4,8 C
11.12.2019 19:33 -4,8 C 84 % 1010,4 hPa 0,0 l/m 0,0 km/h (0 Bft) O-NO 75 -7,1 C -4,8 C
11.12.2019 19:32 -4,8 C 84 % 1010,4 hPa 0,0 l/m 0,0 km/h (0 Bft) O-NO 75 -7,1 C -4,8 C
11.12.2019 19:31 -4,8 C 84 % 1010,4 hPa 0,0 l/m 0,0 km/h (0 Bft) O-NO 75 -7,1 C -4,8 C
11.12.2019 19:30 -4,8 C 85 % 1010,5 hPa 0,0 l/m 0,0 km/h (0 Bft) O-NO 75 -6,9 C -4,8 C
11.12.2019 19:29 -4,7 C 85 % 1010,5 hPa 0,0 l/m 0,0 km/h (0 Bft) O-NO 75 -6,8 C -4,7 C
11.12.2019 19:28 -4,7 C 85 % 1010,4 hPa 0,0 l/m 0,0 km/h (0 Bft) O-NO 75 -6,8 C -4,7 C
11.12.2019 19:27 -4,7 C 85 % 1010,5 hPa 0,0 l/m 0,0 km/h (0 Bft) O-NO 74 -6,8 C -4,7 C
11.12.2019 19:26 -4,7 C 84 % 1010,5 hPa 0,0 l/m 0,0 km/h (0 Bft) O-NO 74 -7,0 C -4,7 C
11.12.2019 19:25 -4,7 C 84 % 1010,5 hPa 0,0 l/m 0,0 km/h (0 Bft) O-NO 74 -7,0 C -4,7 C
11.12.2019 19:24 -4,7 C 84 % 1010,6 hPa 0,0 l/m 0,0 km/h (0 Bft) O-NO 74 -7,0 C -4,7 C
11.12.2019 19:23 -4,6 C 84 % 1010,6 hPa 0,0 l/m 0,0 km/h (0 Bft) O 83 -6,9 C -4,6 C
11.12.2019 19:22 -4,6 C 84 % 1010,6 hPa 0,0 l/m 0,0 km/h (0 Bft) NO 43 -6,9 C -4,6 C
11.12.2019 19:21 -4,6 C 84 % 1010,6 hPa 0,0 l/m 0,0 km/h (0 Bft) NO 43 -6,9 C -4,6 C
11.12.2019 19:20 -4,5 C 84 % 1010,6 hPa 0,0 l/m 0,0 km/h (0 Bft) NO 43 -6,8 C -4,5 C
11.12.2019 19:19 -4,5 C 84 % 1010,6 hPa 0,0 l/m 0,0 km/h (0 Bft) NO 43 -6,8 C -4,5 C
11.12.2019 19:18 -4,4 C 84 % 1010,5 hPa 0,0 l/m 0,0 km/h (0 Bft) NO 43 -6,7 C -4,4 C
11.12.2019 19:17 -4,4 C 84 % 1010,6 hPa 0,0 l/m 0,0 km/h (0 Bft) NO 43 -6,7 C -4,4 C
11.12.2019 19:16 -4,4 C 84 % 1010,6 hPa 0,0 l/m 0,0 km/h (0 Bft) NO 43 -6,7 C -4,4 C
11.12.2019 19:15 -4,4 C 84 % 1010,6 hPa 0,0 l/m 0,0 km/h (0 Bft) NO 43 -6,7 C -4,4 C
11.12.2019 19:14 -4,4 C 84 % 1010,6 hPa 0,0 l/m 0,0 km/h (0 Bft) NO 43 -6,7 C -4,4 C
11.12.2019 19:13 -4,4 C 84 % 1010,6 hPa 0,0 l/m 0,0 km/h (0 Bft) NO 43 -6,7 C -4,4 C
11.12.2019 19:12 -4,4 C 84 % 1010,6 hPa 0,0 l/m 0,0 km/h (0 Bft) NO 43 -6,7 C -4,4 C
11.12.2019 19:11 -4,4 C 84 % 1010,6 hPa 0,0 l/m 0,0 km/h (0 Bft) NO 43 -6,7 C -4,4 C
11.12.2019 19:10 -4,3 C 84 % 1010,6 hPa 0,0 l/m 0,0 km/h (0 Bft) NO 43 -6,6 C -4,3 C
11.12.2019 19:09 -4,3 C 84 % 1010,7 hPa 0,0 l/m 0,0 km/h (0 Bft) NO 43 -6,6 C -4,3 C
11.12.2019 19:08 -4,3 C 84 % 1010,7 hPa 0,0 l/m 0,0 km/h (0 Bft) NO 43 -6,6 C -4,3 C
11.12.2019 19:07 -4,3 C 84 % 1010,7 hPa 0,0 l/m 0,0 km/h (0 Bft) NO 43 -6,6 C -4,3 C
11.12.2019 19:06 -4,3 C 84 % 1010,7 hPa 0,0 l/m 0,0 km/h (0 Bft) NO 43 -6,6 C -4,3 C
11.12.2019 19:05 -4,3 C 84 % 1010,7 hPa 0,0 l/m 0,0 km/h (0 Bft) NO 43 -6,6 C -4,3 C
11.12.2019 19:04 -4,2 C 84 % 1010,7 hPa 0,0 l/m 0,0 km/h (0 Bft) NO 53 -6,5 C -4,2 C
11.12.2019 19:03 -4,2 C 83 % 1010,8 hPa 0,0 l/m 0,0 km/h (0 Bft) NO 52 -6,6 C -4,2 C
11.12.2019 19:02 -4,2 C 83 % 1010,7 hPa 0,0 l/m 0,0 km/h (0 Bft) NO 52 -6,6 C -4,2 C
11.12.2019 19:01 -4,2 C 83 % 1010,7 hPa 0,0 l/m 0,0 km/h (0 Bft) NO 52 -6,6 C -4,2 C
11.12.2019 19:00 -4,2 C 83 % 1010,7 hPa 0,0 l/m 0,0 km/h (0 Bft) NO 52 -6,6 C -4,2 C
11.12.2019 18:59 -4,2 C 83 % 1010,8 hPa 0,0 l/m 0,0 km/h (0 Bft) NO 52 -6,6 C -4,2 C
11.12.2019 18:58 -4,1 C 83 % 1010,8 hPa 0,0 l/m 0,0 km/h (0 Bft) NO 52 -6,5 C -4,1 C
11.12.2019 18:57 -4,1 C 83 % 1010,8 hPa 0,0 l/m 0,0 km/h (0 Bft) NO 52 -6,5 C -4,1 C
11.12.2019 18:56 -4,1 C 83 % 1010,8 hPa 0,0 l/m 0,0 km/h (0 Bft) NO 52 -6,5 C -4,1 C
11.12.2019 18:53 -4,0 C 83 % 1010,8 hPa 0,0 l/m 0,0 km/h (0 Bft) NO 51 -6,4 C -4,0 C
11.12.2019 18:52 -4,0 C 83 % 1010,8 hPa 0,0 l/m 0,0 km/h (0 Bft) NO 51 -6,4 C -4,0 C
11.12.2019 18:51 -4,0 C 83 % 1010,8 hPa 0,0 l/m 0,0 km/h (0 Bft) O-NO 64 -6,4 C -4,0 C
11.12.2019 18:50 -3,9 C 83 % 1010,8 hPa 0,0 l/m 0,0 km/h (0 Bft) O-NO 64 -6,4 C -3,9 C
11.12.2019 18:49 -3,9 C 83 % 1010,8 hPa 0,0 l/m 0,0 km/h (0 Bft) O-NO 64 -6,4 C -3,9 C
11.12.2019 18:48 -3,9 C 83 % 1010,8 hPa 0,0 l/m 0,0 km/h (0 Bft) NO 44 -6,4 C -3,9 C
11.12.2019 18:47 -3,9 C 83 % 1010,8 hPa 0,0 l/m 0,0 km/h (0 Bft) NO 46 -6,4 C -3,9 C
11.12.2019 18:46 -3,9 C 83 % 1010,8 hPa 0,0 l/m 0,0 km/h (0 Bft) NO 43 -6,4 C -3,9 C
11.12.2019 18:45 -3,9 C 83 % 1010,9 hPa 0,0 l/m 0,0 km/h (0 Bft) NO 43 -6,4 C -3,9 C
11.12.2019 18:44 -3,9 C 83 % 1010,8 hPa 0,0 l/m 0,0 km/h (0 Bft) NO 43 -6,4 C -3,9 C
11.12.2019 18:43 -3,8 C 83 % 1010,8 hPa 0,0 l/m 0,0 km/h (0 Bft) NO 43 -6,3 C -3,8 C
11.12.2019 18:42 -3,8 C 83 % 1010,9 hPa 0,0 l/m 0,0 km/h (0 Bft) NO 43 -6,3 C -3,8 C
11.12.2019 18:41 -3,8 C 83 % 1010,8 hPa 0,0 l/m 0,0 km/h (0 Bft) NO 43 -6,3 C -3,8 C
11.12.2019 18:40 -3,8 C 83 % 1010,8 hPa 0,0 l/m 0,0 km/h (0 Bft) NO 43 -6,3 C -3,8 C
11.12.2019 18:39 -3,8 C 83 % 1010,8 hPa 0,0 l/m 0,0 km/h (0 Bft) N-NO 20 -6,3 C -3,8 C
11.12.2019 18:38 -3,8 C 83 % 1010,9 hPa 0,0 l/m 0,0 km/h (0 Bft) N-NO 20 -6,3 C -3,8 C
11.12.2019 18:37 -3,8 C 83 % 1010,9 hPa 0,0 l/m 0,0 km/h (0 Bft) N-NO 16 -6,3 C -3,8 C
11.12.2019 18:36 -3,8 C 83 % 1010,9 hPa 0,0 l/m 0,0 km/h (0 Bft) NO 53 -6,3 C -3,8 C
11.12.2019 18:35 -3,8 C 83 % 1010,9 hPa 0,0 l/m 0,0 km/h (0 Bft) O-NO 61 -6,3 C -3,8 C
11.12.2019 18:34 -3,8 C 83 % 1010,9 hPa 0,0 l/m 0,0 km/h (0 Bft) O-NO 61 -6,3 C -3,8 C
11.12.2019 18:33 -3,8 C 83 % 1011,0 hPa 0,0 l/m 0,0 km/h (0 Bft) O-NO 61 -6,3 C -3,8 C
11.12.2019 18:30 -3,8 C 82 % 1011,1 hPa 0,0 l/m 0,0 km/h (0 Bft) O-NO 65 -6,4 C -3,8 C
11.12.2019 18:29 -3,8 C 82 % 1011,0 hPa 0,0 l/m 0,0 km/h (0 Bft) O-NO 69 -6,4 C -3,8 C
11.12.2019 18:28 -3,8 C 82 % 1011,0 hPa 0,0 l/m 0,0 km/h (0 Bft) O-NO 76 -6,4 C -3,8 C
11.12.2019 18:27 -3,8 C 82 % 1011,1 hPa 0,0 l/m 0,0 km/h (0 Bft) NO 44 -6,4 C -3,8 C
11.12.2019 18:26 -3,8 C 82 % 1011,1 hPa 0,0 l/m 0,0 km/h (0 Bft) O-NO 69 -6,4 C -3,8 C
11.12.2019 18:25 -3,8 C 82 % 1011,1 hPa 0,0 l/m 0,0 km/h (0 Bft) O-NO 70 -6,4 C -3,8 C
11.12.2019 18:24 -3,8 C 82 % 1011,0 hPa 0,0 l/m 0,0 km/h (0 Bft) O 79 -6,4 C -3,8 C
11.12.2019 18:23 -3,8 C 82 % 1011,0 hPa 0,0 l/m 0,0 km/h (0 Bft) O-NO 76 -6,4 C -3,8 C
11.12.2019 18:22 -3,8 C 82 % 1011,1 hPa 0,0 l/m 0,0 km/h (0 Bft) O-NO 76 -6,4 C -3,8 C
11.12.2019 18:21 -3,7 C 82 % 1011,1 hPa 0,0 l/m 0,0 km/h (0 Bft) O-SO 103 -6,3 C -3,7 C
11.12.2019 18:20 -3,7 C 82 % 1011,1 hPa 0,0 l/m 0,0 km/h (0 Bft) O-NO 67 -6,3 C -3,7 C
11.12.2019 18:19 -3,7 C 82 % 1011,1 hPa 0,0 l/m 0,0 km/h (0 Bft) NO 45 -6,3 C -3,7 C
11.12.2019 18:18 -3,7 C 81 % 1011,2 hPa 0,0 l/m 0,0 km/h (0 Bft) O 96 -6,5 C -3,7 C
11.12.2019 18:17 -3,7 C 81 % 1011,2 hPa 0,0 l/m 0,0 km/h (0 Bft) O 99 -6,5 C -3,7 C
11.12.2019 18:16 -3,7 C 81 % 1011,2 hPa 0,0 l/m 0,0 km/h (0 Bft) O-NO 61 -6,5 C -3,7 C
11.12.2019 18:15 -3,7 C 81 % 1011,2 hPa 0,0 l/m 0,0 km/h (0 Bft) O 88 -6,5 C -3,7 C
11.12.2019 18:14 -3,7 C 81 % 1011,2 hPa 0,0 l/m 0,0 km/h (0 Bft) O 93 -6,5 C -3,7 C
11.12.2019 18:13 -3,7 C 80 % 1011,2 hPa 0,0 l/m 0,0 km/h (0 Bft) O 94 -6,6 C -3,7 C
11.12.2019 18:12 -3,7 C 80 % 1011,3 hPa 0,0 l/m 0,0 km/h (0 Bft) O-SO 105 -6,6 C -3,7 C
11.12.2019 18:11 -3,7 C 80 % 1011,3 hPa 0,0 l/m 0,0 km/h (0 Bft) O-SO 107 -6,6 C -3,7 C
11.12.2019 18:10 -3,6 C 80 % 1011,3 hPa 0,0 l/m 0,0 km/h (0 Bft) O-SO 103 -6,5 C -3,6 C
11.12.2019 18:09 -3,6 C 80 % 1011,4 hPa 0,0 l/m 0,0 km/h (0 Bft) O-SO 103 -6,5 C -3,6 C
11.12.2019 18:08 -3,6 C 80 % 1011,4 hPa 0,0 l/m 0,0 km/h (0 Bft) O-SO 103 -6,5 C -3,6 C
11.12.2019 18:07 -3,5 C 80 % 1011,4 hPa 0,0 l/m 0,0 km/h (0 Bft) O-SO 103 -6,4 C -3,5 C
11.12.2019 18:06 -3,5 C 80 % 1011,4 hPa 0,0 l/m 0,0 km/h (0 Bft) O-SO 103 -6,4 C -3,5 C
11.12.2019 18:05 -3,4 C 80 % 1011,4 hPa 0,0 l/m 0,0 km/h (0 Bft) O-SO 104 -6,3 C -3,4 C
11.12.2019 18:04 -3,4 C 80 % 1011,5 hPa 0,0 l/m 0,0 km/h (0 Bft) O-SO 104 -6,3 C -3,4 C
11.12.2019 18:03 -3,4 C 80 % 1011,5 hPa 0,0 l/m 0,0 km/h (0 Bft) O-SO 104 -6,3 C -3,4 C
11.12.2019 18:02 -3,4 C 80 % 1011,5 hPa 0,0 l/m 0,0 km/h (0 Bft) O-SO 104 -6,3 C -3,4 C
11.12.2019 18:00 -3,3 C 79 % 1011,5 hPa 0,0 l/m 0,0 km/h (0 Bft) O-SO 104 -6,4 C -3,3 C
11.12.2019 17:59 -3,3 C 79 % 1011,5 hPa 0,0 l/m 0,0 km/h (0 Bft) O-SO 104 -6,4 C -3,3 C
11.12.2019 17:58 -3,3 C 79 % 1011,6 hPa 0,0 l/m 0,0 km/h (0 Bft) O-SO 104 -6,4 C -3,3 C
11.12.2019 17:57 -3,2 C 79 % 1011,6 hPa 0,0 l/m 0,0 km/h (0 Bft) O-SO 104 -6,3 C -3,2 C
11.12.2019 17:56 -3,2 C 79 % 1011,6 hPa 0,0 l/m 0,0 km/h (0 Bft) O-SO 104 -6,3 C -3,2 C
11.12.2019 17:55 -3,2 C 79 % 1011,6 hPa 0,0 l/m 0,0 km/h (0 Bft) O-SO 104 -6,3 C -3,2 C
11.12.2019 17:54 -3,2 C 79 % 1011,6 hPa 0,0 l/m 0,0 km/h (0 Bft) O-SO 104 -6,3 C -3,2 C
11.12.2019 17:51 -3,1 C 79 % 1011,7 hPa 0,0 l/m 0,0 km/h (0 Bft) O-SO 104 -6,2 C -3,1 C
11.12.2019 17:50 -3,0 C 79 % 1011,6 hPa 0,0 l/m 0,0 km/h (0 Bft) O-SO 104 -6,1 C -3,0 C
11.12.2019 17:49 -3,0 C 79 % 1011,6 hPa 0,0 l/m 0,0 km/h (0 Bft) O-SO 104 -6,1 C -3,0 C
11.12.2019 17:48 -2,9 C 79 % 1011,6 hPa 0,0 l/m 0,0 km/h (0 Bft) O-SO 105 -6,0 C -2,9 C
11.12.2019 17:47 -2,9 C 79 % 1011,7 hPa 0,0 l/m 0,0 km/h (0 Bft) O-SO 109 -6,0 C -2,9 C
11.12.2019 17:46 -2,9 C 79 % 1011,7 hPa 0,0 l/m 0,0 km/h (0 Bft) O-SO 111 -6,0 C -2,9 C
11.12.2019 17:45 -2,9 C 79 % 1011,7 hPa 0,0 l/m 0,0 km/h (0 Bft) O-SO 110 -6,0 C -2,9 C
11.12.2019 17:44 -2,9 C 79 % 1011,7 hPa 0,0 l/m 0,0 km/h (0 Bft) O 100 -6,0 C -2,9 C
11.12.2019 17:43 -2,8 C 79 % 1011,7 hPa 0,0 l/m 0,0 km/h (0 Bft) O-SO 115 -5,9 C -2,8 C
11.12.2019 17:42 -2,8 C 79 % 1011,8 hPa 0,0 l/m 0,0 km/h (0 Bft) O-SO 115 -5,9 C -2,8 C
11.12.2019 17:41 -2,8 C 79 % 1011,7 hPa 0,0 l/m 0,0 km/h (0 Bft) O 97 -5,9 C -2,8 C
11.12.2019 17:39 -2,8 C 78 % 1011,9 hPa 0,0 l/m 0,0 km/h (0 Bft) O-SO 109 -6,1 C -2,8 C
11.12.2019 17:38 -2,8 C 78 % 1011,9 hPa 0,0 l/m 0,0 km/h (0 Bft) O-NO 69 -6,1 C -2,8 C
11.12.2019 17:37 -2,8 C 78 % 1011,9 hPa 0,0 l/m 0,0 km/h (0 Bft) S-SO 157 -6,1 C -2,8 C
11.12.2019 17:36 -2,8 C 78 % 1011,9 hPa 0,0 l/m 0,0 km/h (0 Bft) O-SO 117 -6,1 C -2,8 C
11.12.2019 17:35 -2,8 C 78 % 1012,0 hPa 0,0 l/m 0,0 km/h (0 Bft) SO 130 -6,1 C -2,8 C
11.12.2019 17:34 -2,7 C 78 % 1012,0 hPa 0,0 l/m 0,0 km/h (0 Bft) NO 44 -6,0 C -2,7 C
11.12.2019 17:33 -2,7 C 78 % 1011,9 hPa 0,0 l/m 0,0 km/h (0 Bft) O 97 -6,0 C -2,7 C
11.12.2019 17:32 -2,7 C 78 % 1012,0 hPa 0,0 l/m 0,0 km/h (0 Bft) O 101 -6,0 C -2,7 C
11.12.2019 17:31 -2,7 C 78 % 1012,0 hPa 0,0 l/m 0,0 km/h (0 Bft) O 101 -6,0 C -2,7 C
11.12.2019 17:30 -2,7 C 78 % 1012,0 hPa 0,0 l/m 0,0 km/h (0 Bft) O-SO 105 -6,0 C -2,7 C
11.12.2019 17:29 -2,7 C 77 % 1012,0 hPa 0,0 l/m 0,0 km/h (0 Bft) O-SO 117 -6,2 C -2,7 C
11.12.2019 17:28 -2,6 C 77 % 1011,9 hPa 0,0 l/m 0,0 km/h (0 Bft) O-NO 66 -6,1 C -2,6 C
11.12.2019 17:27 -2,6 C 77 % 1011,9 hPa 0,0 l/m 0,0 km/h (0 Bft) O 95 -6,1 C -2,6 C
11.12.2019 17:26 -2,6 C 77 % 1012,0 hPa 0,0 l/m 0,0 km/h (0 Bft) O 96 -6,1 C -2,6 C
11.12.2019 17:25 -2,6 C 77 % 1012,0 hPa 0,0 l/m 0,0 km/h (0 Bft) O-NO 74 -6,1 C -2,6 C
11.12.2019 17:24 -2,6 C 77 % 1012,0 hPa 0,0 l/m 0,0 km/h (0 Bft) O 89 -6,1 C -2,6 C
11.12.2019 17:23 -2,6 C 77 % 1012,0 hPa 0,0 l/m 0,0 km/h (0 Bft) O-NO 69 -6,1 C -2,6 C
11.12.2019 17:22 -2,6 C 77 % 1012,0 hPa 0,0 l/m 0,0 km/h (0 Bft) O-SO 117 -6,1 C -2,6 C
11.12.2019 17:21 -2,5 C 77 % 1012,0 hPa 0,0 l/m 0,0 km/h (0 Bft) O 86 -6,0 C -2,5 C
11.12.2019 17:20 -2,5 C 77 % 1012,0 hPa 0,0 l/m 0,0 km/h (0 Bft) O-SO 120 -6,0 C -2,5 C
11.12.2019 17:19 -2,5 C 76 % 1012,0 hPa 0,0 l/m 0,0 km/h (0 Bft) O 91 -6,1 C -2,5 C
11.12.2019 17:18 -2,5 C 76 % 1012,0 hPa 0,0 l/m 0,0 km/h (0 Bft) O-NO 61 -6,1 C -2,5 C
11.12.2019 17:17 -2,4 C 76 % 1012,0 hPa 0,0 l/m 0,0 km/h (0 Bft) N-NO 30 -6,0 C -2,4 C
11.12.2019 17:16 -2,4 C 76 % 1012,0 hPa 0,0 l/m 0,0 km/h (0 Bft) SO 131 -6,0 C -2,4 C
11.12.2019 17:15 -2,4 C 76 % 1012,0 hPa 0,0 l/m 0,0 km/h (0 Bft) S-SO 155 -6,0 C -2,4 C
11.12.2019 17:14 -2,4 C 76 % 1012,0 hPa 0,0 l/m 0,0 km/h (0 Bft) O 97 -6,0 C -2,4 C
11.12.2019 17:13 -2,4 C 76 % 1012,0 hPa 0,0 l/m 0,0 km/h (0 Bft) O 82 -6,0 C -2,4 C
11.12.2019 17:12 -2,4 C 76 % 1012,1 hPa 0,0 l/m 0,0 km/h (0 Bft) O-SO 107 -6,0 C -2,4 C
11.12.2019 17:11 -2,3 C 76 % 1012,1 hPa 0,0 l/m 0,0 km/h (0 Bft) NO 53 -5,9 C -2,3 C
11.12.2019 17:10 -2,3 C 75 % 1012,1 hPa 0,0 l/m 0,0 km/h (0 Bft) O 90 -6,1 C -2,3 C
11.12.2019 17:09 -2,3 C 75 % 1012,1 hPa 0,0 l/m 0,0 km/h (0 Bft) O-SO 117 -6,1 C -2,3 C
11.12.2019 17:08 -2,3 C 75 % 1012,1 hPa 0,0 l/m 0,0 km/h (0 Bft) O-SO 103 -6,1 C -2,3 C
11.12.2019 17:07 -2,3 C 75 % 1012,1 hPa 0,0 l/m 0,0 km/h (0 Bft) O-SO 117 -6,1 C -2,3 C
11.12.2019 17:06 -2,3 C 75 % 1012,1 hPa 0,0 l/m 0,0 km/h (0 Bft) NO 43 -6,1 C -2,3 C
11.12.2019 17:05 -2,2 C 75 % 1012,2 hPa 0,0 l/m 0,0 km/h (0 Bft) NO 54 -6,0 C -2,2 C
11.12.2019 17:04 -2,2 C 74 % 1012,1 hPa 0,0 l/m 0,0 km/h (0 Bft) O 98 -6,2 C -2,2 C
11.12.2019 17:03 -2,2 C 74 % 1012,1 hPa 0,0 l/m 0,0 km/h (0 Bft) O 87 -6,2 C -2,2 C
11.12.2019 17:02 -2,2 C 74 % 1012,1 hPa 0,0 l/m 0,0 km/h (0 Bft) O-NO 74 -6,2 C -2,2 C
11.12.2019 17:01 -2,2 C 74 % 1012,2 hPa 0,0 l/m 0,0 km/h (0 Bft) NO 36 -6,2 C -2,2 C
11.12.2019 17:00 -2,2 C 74 % 1012,2 hPa 0,0 l/m 0,0 km/h (0 Bft) SO 128 -6,2 C -2,2 C
11.12.2019 16:59 -2,2 C 74 % 1012,2 hPa 0,0 l/m 0,0 km/h (0 Bft) O 96 -6,2 C -2,2 C
11.12.2019 16:58 -2,2 C 74 % 1012,2 hPa 0,0 l/m 0,0 km/h (0 Bft) O 98 -6,2 C -2,2 C
11.12.2019 16:57 -2,2 C 74 % 1012,2 hPa 0,0 l/m 0,0 km/h (0 Bft) S-SO 147 -6,2 C -2,2 C
11.12.2019 16:56 -2,2 C 74 % 1012,2 hPa 0,0 l/m 0,0 km/h (0 Bft) O-NO 74 -6,2 C -2,2 C
11.12.2019 16:54 -2,2 C 74 % 1012,3 hPa 0,0 l/m 0,0 km/h (0 Bft) O-SO 116 -6,2 C -2,2 C
11.12.2019 16:53 -2,1 C 73 % 1012,2 hPa 0,0 l/m 0,0 km/h (0 Bft) NO 53 -6,3 C -2,1 C
11.12.2019 16:52 -2,1 C 73 % 1012,2 hPa 0,0 l/m 0,0 km/h (0 Bft) NO 44 -6,3 C -2,1 C
11.12.2019 16:51 -2,1 C 73 % 1012,3 hPa 0,0 l/m 0,0 km/h (0 Bft) O-NO 71 -6,3 C -2,1 C
11.12.2019 16:48 -2,0 C 73 % 1012,2 hPa 0,0 l/m 0,0 km/h (0 Bft) NO 48 -6,2 C -2,0 C
11.12.2019 16:47 -2,0 C 73 % 1012,2 hPa 0,0 l/m 0,0 km/h (0 Bft) SO 124 -6,2 C -2,0 C
11.12.2019 16:46 -2,0 C 72 % 1012,2 hPa 0,0 l/m 0,0 km/h (0 Bft) SO 124 -6,4 C -2,0 C
11.12.2019 16:45 -2,0 C 72 % 1012,2 hPa 0,0 l/m 0,0 km/h (0 Bft) O-NO 78 -6,4 C -2,0 C
11.12.2019 16:44 -2,0 C 72 % 1012,2 hPa 0,0 l/m 0,0 km/h (0 Bft) O-NO 76 -6,4 C -2,0 C
11.12.2019 16:43 -1,9 C 72 % 1012,1 hPa 0,0 l/m 0,0 km/h (0 Bft) O-SO 105 -6,3 C -1,9 C
11.12.2019 16:42 -1,9 C 72 % 1012,1 hPa 0,0 l/m 0,0 km/h (0 Bft) NO 53 -6,3 C -1,9 C
11.12.2019 16:41 -1,9 C 72 % 1012,2 hPa 0,0 l/m 0,0 km/h (0 Bft) N-NO 17 -6,3 C -1,9 C
11.12.2019 16:40 -1,9 C 72 % 1012,2 hPa 0,0 l/m 0,0 km/h (0 Bft) O 98 -6,3 C -1,9 C
11.12.2019 16:39 -1,9 C 72 % 1012,2 hPa 0,0 l/m 0,0 km/h (0 Bft) O-NO 73 -6,3 C -1,9 C
11.12.2019 16:38 -1,9 C 72 % 1012,1 hPa 0,0 l/m 0,0 km/h (0 Bft) SO 135 -6,3 C -1,9 C
11.12.2019 16:37 -1,9 C 72 % 1012,1 hPa 0,0 l/m 0,0 km/h (0 Bft) NO 40 -6,3 C -1,9 C
11.12.2019 16:36 -1,8 C 71 % 1012,1 hPa 0,0 l/m 0,0 km/h (0 Bft) O-NO 58 -6,3 C -1,8 C
11.12.2019 16:35 -1,8 C 71 % 1012,1 hPa 0,0 l/m 0,0 km/h (0 Bft) NO 40 -6,3 C -1,8 C
11.12.2019 16:34 -1,8 C 71 % 1012,1 hPa 0,0 l/m 0,0 km/h (0 Bft) NW 309 -6,3 C -1,8 C
11.12.2019 16:33 -1,8 C 71 % 1012,1 hPa 0,0 l/m 0,0 km/h (0 Bft) O 91 -6,3 C -1,8 C
11.12.2019 16:32 -1,8 C 71 % 1012,1 hPa 0,0 l/m 0,0 km/h (0 Bft) O-SO 103 -6,3 C -1,8 C
11.12.2019 16:30 -1,7 C 71 % 1012,1 hPa 0,0 l/m 0,0 km/h (0 Bft) O-SO 105 -6,2 C -1,7 C
11.12.2019 16:29 -1,7 C 71 % 1012,1 hPa 0,0 l/m 0,0 km/h (0 Bft) O-SO 106 -6,2 C -1,7 C
11.12.2019 16:28 -1,7 C 71 % 1012,1 hPa 0,0 l/m 0,0 km/h (0 Bft) O-SO 103 -6,2 C -1,7 C
11.12.2019 16:27 -1,7 C 71 % 1012,1 hPa 0,0 l/m 0,0 km/h (0 Bft) O-SO 122 -6,2 C -1,7 C
11.12.2019 16:26 -1,7 C 71 % 1012,1 hPa 0,0 l/m 0,0 km/h (0 Bft) N-NO 22 -6,2 C -1,7 C
11.12.2019 16:25 -1,7 C 71 % 1012,1 hPa 0,0 l/m 0,0 km/h (0 Bft) O-SO 104 -6,2 C -1,7 C
11.12.2019 16:24 -1,6 C 70 % 1012,1 hPa 0,0 l/m 0,0 km/h (0 Bft) O 85 -6,3 C -1,6 C
11.12.2019 16:23 -1,6 C 70 % 1012,1 hPa 0,0 l/m 0,0 km/h (0 Bft) O-SO 106 -6,3 C -1,6 C
11.12.2019 16:22 -1,6 C 70 % 1012,1 hPa 0,0 l/m 0,0 km/h (0 Bft) O 85 -6,3 C -1,6 C
11.12.2019 16:21 -1,6 C 70 % 1012,0 hPa 0,0 l/m 0,0 km/h (0 Bft) O-SO 120 -6,3 C -1,6 C
11.12.2019 16:20 -1,6 C 70 % 1012,1 hPa 0,0 l/m 0,0 km/h (0 Bft) SO 132 -6,3 C -1,6 C
11.12.2019 16:19 -1,5 C 70 % 1012,1 hPa 0,0 l/m 0,0 km/h (0 Bft) O 98 -6,2 C -1,5 C
11.12.2019 16:17 -1,5 C 70 % 1012,2 hPa 0,0 l/m 3,1 km/h (1 Bft) SO 144 -6,2 C -1,5 C
11.12.2019 16:16 -1,4 C 70 % 1012,2 hPa 0,0 l/m 0,0 km/h (0 Bft) S-SO 149 -6,1 C -1,4 C
11.12.2019 16:15 -1,4 C 70 % 1012,2 hPa 0,0 l/m 0,0 km/h (0 Bft) O 90 -6,1 C -1,4 C
11.12.2019 16:14 -1,4 C 69 % 1012,1 hPa 0,0 l/m 0,0 km/h (0 Bft) O-SO 108 -6,3 C -1,4 C
11.12.2019 16:13 -1,4 C 69 % 1012,2 hPa 0,0 l/m 0,0 km/h (0 Bft) O-NO 63 -6,3 C -1,4 C
11.12.2019 16:12 -1,4 C 69 % 1012,3 hPa 0,0 l/m 0,0 km/h (0 Bft) O-NO 75 -6,3 C -1,4 C
11.12.2019 16:11 -1,4 C 69 % 1012,3 hPa 0,0 l/m 0,0 km/h (0 Bft) O-SO 115 -6,3 C -1,4 C
11.12.2019 16:10 -1,3 C 69 % 1012,4 hPa 0,0 l/m 6,5 km/h (2 Bft) O 96 -6,2 C -1,4 C
11.12.2019 16:09 -1,3 C 69 % 1012,3 hPa 0,0 l/m 0,0 km/h (0 Bft) S-SO 154 -6,2 C -1,3 C
11.12.2019 16:08 -1,3 C 69 % 1012,4 hPa 0,0 l/m 0,0 km/h (0 Bft) O-NO 74 -6,2 C -1,3 C
11.12.2019 16:07 -1,3 C 69 % 1012,4 hPa 0,0 l/m 0,0 km/h (0 Bft) O 99 -6,2 C -1,3 C
11.12.2019 16:06 -1,2 C 69 % 1012,5 hPa 0,0 l/m 0,0 km/h (0 Bft) SO 132 -6,1 C -1,2 C
11.12.2019 16:05 -1,2 C 69 % 1012,5 hPa 0,0 l/m 0,0 km/h (0 Bft) O 92 -6,1 C -1,2 C
11.12.2019 16:04 -1,2 C 68 % 1012,5 hPa 0,0 l/m 0,0 km/h (0 Bft) O-SO 105 -6,3 C -1,2 C
11.12.2019 16:03 -1,2 C 68 % 1012,4 hPa 0,0 l/m 0,0 km/h (0 Bft) O 100 -6,3 C -1,2 C
11.12.2019 16:02 -1,2 C 68 % 1012,5 hPa 0,0 l/m 0,0 km/h (0 Bft) O-NO 76 -6,3 C -1,2 C
11.12.2019 16:01 -1,1 C 69 % 1012,5 hPa 0,0 l/m 0,0 km/h (0 Bft) O-NO 69 -6,0 C -1,1 C
11.12.2019 16:00 -1,1 C 68 % 1012,5 hPa 0,0 l/m 0,0 km/h (0 Bft) SO 144 -6,2 C -1,1 C
11.12.2019 15:59 -1,1 C 68 % 1012,5 hPa 0,0 l/m 0,0 km/h (0 Bft) O 94 -6,2 C -1,1 C
11.12.2019 15:58 -1,1 C 68 % 1012,6 hPa 0,0 l/m 0,0 km/h (0 Bft) O 96 -6,2 C -1,1 C
11.12.2019 15:57 -1,1 C 68 % 1012,6 hPa 0,0 l/m 0,0 km/h (0 Bft) O-SO 115 -6,2 C -1,1 C
11.12.2019 15:56 -1,0 C 68 % 1012,6 hPa 0,0 l/m 0,0 km/h (0 Bft) O-SO 119 -6,1 C -1,0 C
11.12.2019 15:55 -1,0 C 68 % 1012,6 hPa 0,0 l/m 0,0 km/h (0 Bft) O-SO 103 -6,1 C -1,0 C
11.12.2019 15:54 -1,0 C 68 % 1012,7 hPa 0,0 l/m 0,0 km/h (0 Bft) O-SO 106 -6,1 C -1,0 C
11.12.2019 15:53 -0,9 C 68 % 1012,6 hPa 0,0 l/m 0,0 km/h (0 Bft) O 98 -6,0 C -0,9 C
11.12.2019 15:52 -0,9 C 68 % 1012,7 hPa 0,0 l/m 0,0 km/h (0 Bft) O-SO 102 -6,0 C -0,9 C
11.12.2019 15:51 -0,9 C 68 % 1012,6 hPa 0,0 l/m 0,0 km/h (0 Bft) O 99 -6,0 C -0,9 C
11.12.2019 15:50 -0,9 C 68 % 1012,7 hPa 0,0 l/m 0,0 km/h (0 Bft) N-NO 31 -6,0 C -0,9 C
11.12.2019 15:49 -0,8 C 68 % 1012,6 hPa 0,0 l/m 0,0 km/h (0 Bft) O-SO 115 -5,9 C -0,8 C
11.12.2019 15:46 -0,8 C 68 % 1012,7 hPa 0,0 l/m 0,0 km/h (0 Bft) NO 56 -5,9 C -0,8 C
11.12.2019 15:44 -0,7 C 68 % 1012,8 hPa 0,0 l/m 0,0 km/h (0 Bft) O 84 -5,9 C -0,7 C
11.12.2019 15:43 -0,7 C 68 % 1012,8 hPa 0,0 l/m 0,0 km/h (0 Bft) O 89 -5,9 C -0,7 C
11.12.2019 15:42 -0,7 C 68 % 1012,8 hPa 0,0 l/m 0,0 km/h (0 Bft) O-SO 109 -5,9 C -0,7 C
11.12.2019 15:41 -0,7 C 68 % 1012,8 hPa 0,0 l/m 0,0 km/h (0 Bft) NO 38 -5,9 C -0,7 C
11.12.2019 15:40 -0,7 C 68 % 1012,9 hPa 0,0 l/m 0,0 km/h (0 Bft) O-SO 117 -5,9 C -0,7 C
11.12.2019 15:39 -0,7 C 68 % 1012,9 hPa 0,0 l/m 0,0 km/h (0 Bft) O-SO 122 -5,9 C -0,7 C
11.12.2019 15:38 -0,7 C 68 % 1012,9 hPa 0,0 l/m 0,0 km/h (0 Bft) O 91 -5,9 C -0,7 C
11.12.2019 15:37 -0,6 C 67 % 1012,9 hPa 0,0 l/m 0,0 km/h (0 Bft) O 99 -6,0 C -0,6 C
11.12.2019 15:36 -0,6 C 68 % 1013,0 hPa 0,0 l/m 0,0 km/h (0 Bft) O-NO 69 -5,8 C -0,6 C
11.12.2019 15:35 -0,6 C 67 % 1013,0 hPa 0,0 l/m 0,0 km/h (0 Bft) O-SO 107 -6,0 C -0,6 C
11.12.2019 15:34 -0,6 C 67 % 1013,0 hPa 0,0 l/m 0,0 km/h (0 Bft) S-SO 164 -6,0 C -0,6 C
11.12.2019 15:33 -0,5 C 67 % 1013,0 hPa 0,0 l/m 0,0 km/h (0 Bft) O-SO 110 -5,9 C -0,5 C
11.12.2019 15:32 -0,5 C 67 % 1013,0 hPa 0,0 l/m 0,0 km/h (0 Bft) SO 125 -5,9 C -0,5 C
11.12.2019 15:31 -0,4 C 67 % 1013,0 hPa 0,0 l/m 0,0 km/h (0 Bft) NO 46 -5,8 C -0,4 C
11.12.2019 15:30 -0,4 C 67 % 1013,0 hPa 0,0 l/m 0,0 km/h (0 Bft) NO 47 -5,8 C -0,4 C
11.12.2019 15:29 -0,4 C 68 % 1013,0 hPa 0,0 l/m 0,0 km/h (0 Bft) NO 56 -5,6 C -0,4 C
11.12.2019 15:28 -0,3 C 68 % 1013,0 hPa 0,0 l/m 0,0 km/h (0 Bft) NO 39 -5,5 C -0,3 C
11.12.2019 15:27 -0,3 C 67 % 1013,0 hPa 0,0 l/m 0,0 km/h (0 Bft) N 5 -5,7 C -0,3 C
11.12.2019 15:26 -0,3 C 67 % 1013,1 hPa 0,0 l/m 0,0 km/h (0 Bft) N 360 -5,7 C -0,3 C
11.12.2019 15:25 -0,3 C 67 % 1013,1 hPa 0,0 l/m 0,0 km/h (0 Bft) NO 36 -5,7 C -0,3 C
11.12.2019 15:24 -0,3 C 67 % 1013,1 hPa 0,0 l/m 0,0 km/h (0 Bft) O 82 -5,7 C -0,3 C
11.12.2019 15:23 -0,2 C 67 % 1013,1 hPa 0,0 l/m 0,0 km/h (0 Bft) O-NO 73 -5,6 C -0,2 C
11.12.2019 15:22 -0,2 C 67 % 1013,1 hPa 0,0 l/m 0,0 km/h (0 Bft) NO 40 -5,6 C -0,2 C
11.12.2019 15:21 -0,2 C 67 % 1013,1 hPa 0,0 l/m 0,0 km/h (0 Bft) O 88 -5,6 C -0,2 C
11.12.2019 15:20 -0,2 C 67 % 1013,1 hPa 0,0 l/m 0,0 km/h (0 Bft) O 92 -5,6 C -0,2 C
11.12.2019 15:19 -0,2 C 67 % 1013,1 hPa 0,0 l/m 0,0 km/h (0 Bft) NO 43 -5,6 C -0,2 C
11.12.2019 15:18 -0,1 C 67 % 1013,2 hPa 0,0 l/m 0,0 km/h (0 Bft) O-NO 78 -5,5 C -0,1 C
11.12.2019 15:17 -0,1 C 67 % 1013,2 hPa 0,0 l/m 0,0 km/h (0 Bft) O-SO 114 -5,5 C -0,1 C
11.12.2019 15:16 -0,1 C 67 % 1013,2 hPa 0,0 l/m 0,0 km/h (0 Bft) O-SO 122 -5,5 C -0,1 C
11.12.2019 15:15 -0,1 C 67 % 1013,2 hPa 0,0 l/m 0,0 km/h (0 Bft) SO 129 -5,5 C -0,1 C
11.12.2019 15:14 -0,1 C 67 % 1013,2 hPa 0,0 l/m 0,0 km/h (0 Bft) O 81 -5,5 C -0,1 C
11.12.2019 15:13 -0,1 C 67 % 1013,2 hPa 0,0 l/m 0,0 km/h (0 Bft) O 81 -5,5 C -0,1 C
11.12.2019 15:12 -0,1 C 67 % 1013,2 hPa 0,0 l/m 0,0 km/h (0 Bft) O 81 -5,5 C -0,1 C
11.12.2019 15:11 -0,1 C 66 % 1013,2 hPa 0,0 l/m 0,0 km/h (0 Bft) N-NO 20 -5,7 C -0,1 C
11.12.2019 15:10 0,0 C 66 % 1013,3 hPa 0,0 l/m 0,0 km/h (0 Bft) O-SO 103 -5,6 C 0,0 C
11.12.2019 15:09 0,0 C 66 % 1013,3 hPa 0,0 l/m 0,0 km/h (0 Bft) O 80 -5,6 C 0,0 C
11.12.2019 15:08 0,1 C 66 % 1013,3 hPa 0,0 l/m 0,0 km/h (0 Bft) NO 46 -5,5 C 0,1 C
11.12.2019 15:07 0,1 C 66 % 1013,3 hPa 0,0 l/m 0,0 km/h (0 Bft) O-NO 78 -5,5 C 0,1 C
11.12.2019 15:06 0,1 C 66 % 1013,3 hPa 0,0 l/m 0,0 km/h (0 Bft) O-SO 109 -5,5 C 0,1 C
11.12.2019 15:05 0,2 C 66 % 1013,3 hPa 0,0 l/m 0,0 km/h (0 Bft) N-NW 340 -5,4 C 0,2 C
11.12.2019 15:04 0,2 C 66 % 1013,3 hPa 0,0 l/m 0,0 km/h (0 Bft) NO 56 -5,4 C 0,2 C
11.12.2019 15:03 0,2 C 66 % 1013,3 hPa 0,0 l/m 0,0 km/h (0 Bft) NO 51 -5,4 C 0,2 C
11.12.2019 15:02 0,2 C 66 % 1013,3 hPa 0,0 l/m 0,0 km/h (0 Bft) O 96 -5,4 C 0,2 C
11.12.2019 15:01 0,3 C 65 % 1013,4 hPa 0,0 l/m 0,0 km/h (0 Bft) S-SO 153 -5,5 C 0,3 C
11.12.2019 15:00 0,3 C 65 % 1013,4 hPa 0,0 l/m 0,0 km/h (0 Bft) O 82 -5,5 C 0,3 C
11.12.2019 14:59 0,3 C 65 % 1013,4 hPa 0,0 l/m 0,0 km/h (0 Bft) NO 54 -5,5 C 0,3 C
11.12.2019 14:58 0,4 C 65 % 1013,4 hPa 0,0 l/m 0,0 km/h (0 Bft) O-SO 111 -5,4 C 0,4 C
11.12.2019 14:57 0,4 C 65 % 1013,4 hPa 0,0 l/m 6,5 km/h (2 Bft) NO 44 -5,4 C 0,3 C
11.12.2019 14:56 0,4 C 65 % 1013,4 hPa 0,0 l/m 0,0 km/h (0 Bft) O-NO 76 -5,4 C 0,4 C
11.12.2019 14:54 0,5 C 64 % 1013,4 hPa 0,0 l/m 0,0 km/h (0 Bft) O-NO 78 -5,5 C 0,5 C
11.12.2019 14:53 0,5 C 65 % 1013,4 hPa 0,0 l/m 0,0 km/h (0 Bft) O-NO 68 -5,3 C 0,5 C
11.12.2019 14:52 0,6 C 64 % 1013,4 hPa 0,0 l/m 0,0 km/h (0 Bft) O-NO 61 -5,4 C 0,6 C
11.12.2019 14:51 0,6 C 64 % 1013,5 hPa 0,0 l/m 0,0 km/h (0 Bft) NO 47 -5,4 C 0,6 C
11.12.2019 14:50 0,6 C 64 % 1013,5 hPa 0,0 l/m 0,0 km/h (0 Bft) O-SO 108 -5,4 C 0,6 C
11.12.2019 14:49 0,6 C 64 % 1013,4 hPa 0,0 l/m 0,0 km/h (0 Bft) O-SO 117 -5,4 C 0,6 C
11.12.2019 14:48 0,7 C 64 % 1013,5 hPa 0,0 l/m 0,0 km/h (0 Bft) O-SO 123 -5,3 C 0,7 C
11.12.2019 14:47 0,7 C 64 % 1013,5 hPa 0,0 l/m 0,0 km/h (0 Bft) O-SO 112 -5,3 C 0,7 C
11.12.2019 14:43 0,8 C 64 % 1013,6 hPa 0,0 l/m 0,0 km/h (0 Bft) N-NO 18 -5,2 C 0,8 C
11.12.2019 14:42 0,8 C 63 % 1013,6 hPa 0,0 l/m 0,0 km/h (0 Bft) O 91 -5,4 C 0,8 C
11.12.2019 14:41 0,8 C 63 % 1013,6 hPa 0,0 l/m 0,0 km/h (0 Bft) O-SO 109 -5,4 C 0,8 C
11.12.2019 14:40 0,8 C 63 % 1013,6 hPa 0,0 l/m 0,0 km/h (0 Bft) O-NO 78 -5,4 C 0,8 C
11.12.2019 14:39 0,9 C 63 % 1013,6 hPa 0,0 l/m 0,0 km/h (0 Bft) N-NO 12 -5,3 C 0,9 C
11.12.2019 14:38 0,9 C 62 % 1013,6 hPa 0,0 l/m 0,0 km/h (0 Bft) O-NO 71 -5,5 C 0,9 C
11.12.2019 14:36 0,9 C 62 % 1013,7 hPa 0,0 l/m 0,0 km/h (0 Bft) O-SO 120 -5,5 C 0,9 C
11.12.2019 14:35 0,9 C 61 % 1013,7 hPa 0,0 l/m 8,0 km/h (2 Bft) O-SO 120 -5,8 C -0,7 C
11.12.2019 14:34 0,9 C 61 % 1013,7 hPa 0,0 l/m 1,7 km/h (1 Bft) S-SO 157 -5,8 C 0,9 C
11.12.2019 14:33 0,9 C 61 % 1013,7 hPa 0,0 l/m 0,0 km/h (0 Bft) O-NO 71 -5,8 C 0,9 C
11.12.2019 14:32 0,9 C 60 % 1013,7 hPa 0,0 l/m 3,1 km/h (1 Bft) N-NO 25 -6,0 C 0,9 C
11.12.2019 14:31 1,0 C 60 % 1013,7 hPa 0,0 l/m 0,0 km/h (0 Bft) O-NO 71 -5,9 C 1,0 C
11.12.2019 14:30 1,0 C 60 % 1013,7 hPa 0,0 l/m 0,0 km/h (0 Bft) N-NW 348 -5,9 C 1,0 C
11.12.2019 14:29 1,1 C 60 % 1013,7 hPa 0,0 l/m 0,0 km/h (0 Bft) O 95 -5,8 C 1,1 C
11.12.2019 14:28 1,1 C 60 % 1013,7 hPa 0,0 l/m 0,0 km/h (0 Bft) NO 44 -5,8 C 1,1 C
11.12.2019 14:27 1,1 C 61 % 1013,6 hPa 0,0 l/m 1,7 km/h (1 Bft) O 82 -5,6 C 1,1 C
11.12.2019 14:26 1,1 C 61 % 1013,7 hPa 0,0 l/m 0,0 km/h (0 Bft) N-NO 16 -5,6 C 1,1 C
11.12.2019 14:25 1,1 C 60 % 1013,7 hPa 0,0 l/m 0,0 km/h (0 Bft) O-SO 121 -5,8 C 1,1 C
11.12.2019 14:24 1,1 C 60 % 1013,7 hPa 0,0 l/m 1,7 km/h (1 Bft) NW 309 -5,8 C 1,1 C
11.12.2019 14:23 1,2 C 59 % 1013,7 hPa 0,0 l/m 0,0 km/h (0 Bft) N 5 -5,9 C 1,2 C
11.12.2019 14:22 1,2 C 60 % 1013,7 hPa 0,0 l/m 0,0 km/h (0 Bft) SO 135 -5,7 C 1,2 C
11.12.2019 14:21 1,2 C 60 % 1013,7 hPa 0,0 l/m 0,0 km/h (0 Bft) N 360 -5,7 C 1,2 C
11.12.2019 14:20 1,2 C 60 % 1013,8 hPa 0,0 l/m 3,1 km/h (1 Bft) O 90 -5,7 C 1,2 C
11.12.2019 14:19 1,2 C 59 % 1013,8 hPa 0,0 l/m 3,1 km/h (1 Bft) S-SO 153 -5,9 C 1,2 C
11.12.2019 14:18 1,2 C 59 % 1013,8 hPa 0,0 l/m 0,0 km/h (0 Bft) SO 128 -5,9 C 1,2 C
11.12.2019 14:17 1,2 C 59 % 1013,8 hPa 0,0 l/m 0,0 km/h (0 Bft) O-SO 107 -5,9 C 1,2 C
11.12.2019 14:16 1,2 C 60 % 1013,8 hPa 0,0 l/m 1,7 km/h (1 Bft) NO 42 -5,7 C 1,2 C
11.12.2019 14:15 1,2 C 60 % 1013,8 hPa 0,0 l/m 0,0 km/h (0 Bft) NO 51 -5,7 C 1,2 C
11.12.2019 14:14 1,2 C 60 % 1014,0 hPa 0,0 l/m 0,0 km/h (0 Bft) SO 127 -5,7 C 1,2 C
11.12.2019 14:13 1,2 C 60 % 1013,9 hPa 0,0 l/m 0,0 km/h (0 Bft) SO 135 -5,7 C 1,2 C
11.12.2019 14:12 1,2 C 59 % 1013,9 hPa 0,0 l/m 0,0 km/h (0 Bft) O 98 -5,9 C 1,2 C
11.12.2019 14:11 1,2 C 59 % 1013,9 hPa 0,0 l/m 0,0 km/h (0 Bft) O-SO 103 -5,9 C 1,2 C
11.12.2019 14:10 1,2 C 58 % 1013,9 hPa 0,0 l/m 0,0 km/h (0 Bft) NO 39 -6,1 C 1,2 C
11.12.2019 14:09 1,2 C 58 % 1014,0 hPa 0,0 l/m 0,0 km/h (0 Bft) O-SO 108 -6,1 C 1,2 C
11.12.2019 14:08 1,2 C 57 % 1014,0 hPa 0,0 l/m 0,0 km/h (0 Bft) NO 49 -6,4 C 1,2 C
11.12.2019 14:07 1,2 C 58 % 1014,0 hPa 0,0 l/m 1,7 km/h (1 Bft) O 94 -6,1 C 1,2 C
11.12.2019 14:05 1,3 C 57 % 1014,0 hPa 0,0 l/m 0,0 km/h (0 Bft) N 360 -6,3 C 1,3 C
11.12.2019 14:04 1,3 C 56 % 1014,0 hPa 0,0 l/m 3,1 km/h (1 Bft) NO 38 -6,5 C 1,3 C
11.12.2019 14:03 1,3 C 57 % 1014,1 hPa 0,0 l/m 3,1 km/h (1 Bft) N-NW 340 -6,3 C 1,3 C
11.12.2019 14:02 1,3 C 57 % 1014,1 hPa 0,0 l/m 0,0 km/h (0 Bft) O-SO 109 -6,3 C 1,3 C
11.12.2019 14:00 1,3 C 55 % 1014,2 hPa 0,0 l/m 0,0 km/h (0 Bft) SO 142 -6,7 C 1,3 C
11.12.2019 13:59 1,3 C 56 % 1014,1 hPa 0,0 l/m 3,1 km/h (1 Bft) O 84 -6,5 C 1,3 C
11.12.2019 13:58 1,3 C 56 % 1014,2 hPa 0,0 l/m 0,0 km/h (0 Bft) NO 34 -6,5 C 1,3 C
11.12.2019 13:57 1,4 C 55 % 1014,2 hPa 0,0 l/m 0,0 km/h (0 Bft) N 5 -6,6 C 1,4 C
11.12.2019 13:56 1,4 C 54 % 1014,2 hPa 0,0 l/m 3,1 km/h (1 Bft) SO 134 -6,9 C 1,4 C
11.12.2019 13:55 1,4 C 55 % 1014,2 hPa 0,0 l/m 0,0 km/h (0 Bft) SO 125 -6,6 C 1,4 C
11.12.2019 13:54 1,4 C 55 % 1014,2 hPa 0,0 l/m 0,0 km/h (0 Bft) O-NO 64 -6,6 C 1,4 C
11.12.2019 13:53 1,4 C 54 % 1014,2 hPa 0,0 l/m 0,0 km/h (0 Bft) O-NO 64 -6,9 C 1,4 C
11.12.2019 13:52 1,4 C 54 % 1014,4 hPa 0,0 l/m 0,0 km/h (0 Bft) O 98 -6,9 C 1,4 C
11.12.2019 13:51 1,4 C 53 % 1014,3 hPa 0,0 l/m 0,0 km/h (0 Bft) O 97 -7,1 C 1,4 C
11.12.2019 13:50 1,4 C 53 % 1014,4 hPa 0,0 l/m 1,7 km/h (1 Bft) O 90 -7,1 C 1,4 C
11.12.2019 13:49 1,5 C 54 % 1014,4 hPa 0,0 l/m 0,0 km/h (0 Bft) NO 36 -6,8 C 1,5 C
11.12.2019 13:48 1,6 C 53 % 1014,4 hPa 0,0 l/m 0,0 km/h (0 Bft) O-NO 73 -6,9 C 1,6 C
11.12.2019 13:47 1,6 C 52 % 1014,4 hPa 0,0 l/m 0,0 km/h (0 Bft) SO 131 -7,2 C 1,6 C
11.12.2019 13:46 1,6 C 52 % 1014,4 hPa 0,0 l/m 0,0 km/h (0 Bft) O-NO 78 -7,2 C 1,6 C
11.12.2019 13:45 1,6 C 50 % 1014,4 hPa 0,0 l/m 0,0 km/h (0 Bft) N-NO 14 -7,7 C 1,6 C
11.12.2019 13:44 1,7 C 50 % 1014,4 hPa 0,0 l/m 3,1 km/h (1 Bft) O-NO 74 -7,6 C 1,7 C
11.12.2019 13:41 1,8 C 50 % 1014,5 hPa 0,0 l/m 0,0 km/h (0 Bft) O-SO 103 -7,5 C 1,8 C
11.12.2019 13:40 1,8 C 51 % 1014,5 hPa 0,0 l/m 0,0 km/h (0 Bft) O 84 -7,2 C 1,8 C
11.12.2019 13:39 1,9 C 50 % 1014,6 hPa 0,0 l/m 0,0 km/h (0 Bft) N 355 -7,4 C 1,9 C
11.12.2019 13:38 2,0 C 50 % 1014,5 hPa 0,0 l/m 0,0 km/h (0 Bft) O-NO 76 -7,3 C 2,0 C
11.12.2019 13:37 2,0 C 50 % 1014,6 hPa 0,0 l/m 0,0 km/h (0 Bft) O 95 -7,3 C 2,0 C
11.12.2019 13:36 2,0 C 49 % 1014,6 hPa 0,0 l/m 0,0 km/h (0 Bft) O-NO 61 -7,6 C 2,0 C
11.12.2019 13:35 2,0 C 49 % 1014,7 hPa 0,0 l/m 0,0 km/h (0 Bft) O 85 -7,6 C 2,0 C
11.12.2019 13:34 2,0 C 50 % 1014,7 hPa 0,0 l/m 0,0 km/h (0 Bft) O-SO 112 -7,3 C 2,0 C
11.12.2019 13:33 2,0 C 49 % 1014,6 hPa 0,0 l/m 0,0 km/h (0 Bft) S-SO 153 -7,6 C 2,0 C
11.12.2019 13:32 2,0 C 49 % 1014,7 hPa 0,0 l/m 0,0 km/h (0 Bft) S-SO 153 -7,6 C 2,0 C
11.12.2019 13:30 2,1 C 48 % 1014,8 hPa 0,0 l/m 0,0 km/h (0 Bft) SO 131 -7,7 C 2,1 C
11.12.2019 13:29 2,1 C 49 % 1014,8 hPa 0,0 l/m 0,0 km/h (0 Bft) SO 125 -7,5 C 2,1 C
11.12.2019 13:28 2,2 C 48 % 1014,9 hPa 0,0 l/m 0,0 km/h (0 Bft) O-SO 121 -7,6 C 2,2 C
11.12.2019 13:27 2,2 C 49 % 1014,9 hPa 0,0 l/m 3,1 km/h (1 Bft) S 169 -7,4 C 2,2 C
11.12.2019 13:26 2,2 C 49 % 1014,9 hPa 0,0 l/m 0,0 km/h (0 Bft) SO 134 -7,4 C 2,2 C
11.12.2019 13:25 2,2 C 49 % 1015,0 hPa 0,0 l/m 0,0 km/h (0 Bft) S-SO 150 -7,4 C 2,2 C
11.12.2019 13:24 2,2 C 49 % 1015,0 hPa 0,0 l/m 0,0 km/h (0 Bft) S-SO 159 -7,4 C 2,2 C
11.12.2019 13:23 2,1 C 49 % 1015,0 hPa 0,0 l/m 0,0 km/h (0 Bft) O 99 -7,5 C 2,1 C
11.12.2019 13:22 2,1 C 49 % 1015,0 hPa 0,0 l/m 0,0 km/h (0 Bft) O 94 -7,5 C 2,1 C
11.12.2019 13:21 2,1 C 48 % 1015,0 hPa 0,0 l/m 0,0 km/h (0 Bft) O 92 -7,7 C 2,1 C
11.12.2019 13:20 2,1 C 48 % 1014,9 hPa 0,0 l/m 0,0 km/h (0 Bft) O-SO 107 -7,7 C 2,1 C
11.12.2019 13:19 2,1 C 48 % 1015,0 hPa 0,0 l/m 0,0 km/h (0 Bft) S-SO 149 -7,7 C 2,1 C
11.12.2019 13:18 2,1 C 48 % 1015,0 hPa 0,0 l/m 0,0 km/h (0 Bft) O-SO 115 -7,7 C 2,1 C
11.12.2019 13:17 2,1 C 47 % 1015,0 hPa 0,0 l/m 1,7 km/h (1 Bft) S-SO 154 -8,0 C 2,1 C
11.12.2019 13:16 2,1 C 48 % 1015,1 hPa 0,0 l/m 0,0 km/h (0 Bft) SO 136 -7,7 C 2,1 C
11.12.2019 13:15 2,1 C 47 % 1015,0 hPa 0,0 l/m 0,0 km/h (0 Bft) O-SO 113 -8,0 C 2,1 C
11.12.2019 13:14 2,2 C 47 % 1015,0 hPa 0,0 l/m 0,0 km/h (0 Bft) O-SO 111 -7,9 C 2,2 C
11.12.2019 13:13 2,2 C 47 % 1015,1 hPa 0,0 l/m 0,0 km/h (0 Bft) S-SO 165 -7,9 C 2,2 C
11.12.2019 13:12 2,2 C 46 % 1015,0 hPa 0,0 l/m 0,0 km/h (0 Bft) S-SO 161 -8,2 C 2,2 C
11.12.2019 13:10 2,3 C 45 % 1015,1 hPa 0,0 l/m 0,0 km/h (0 Bft) S 175 -8,4 C 2,3 C
11.12.2019 13:09 2,3 C 45 % 1015,1 hPa 0,0 l/m 0,0 km/h (0 Bft) O-NO 77 -8,4 C 2,3 C
11.12.2019 13:08 2,3 C 45 % 1015,1 hPa 0,0 l/m 0,0 km/h (0 Bft) O 95 -8,4 C 2,3 C
11.12.2019 13:07 2,3 C 45 % 1015,1 hPa 0,0 l/m 0,0 km/h (0 Bft) S-SO 160 -8,4 C 2,3 C
11.12.2019 13:06 2,3 C 45 % 1015,1 hPa 0,0 l/m 0,0 km/h (0 Bft) S 169 -8,4 C 2,3 C
11.12.2019 13:05 2,3 C 45 % 1015,1 hPa 0,0 l/m 1,7 km/h (1 Bft) S-SO 165 -8,4 C 2,3 C
11.12.2019 13:04 2,3 C 44 % 1015,2 hPa 0,0 l/m 1,7 km/h (1 Bft) O 94 -8,7 C 2,3 C
11.12.2019 13:03 2,4 C 44 % 1015,1 hPa 0,0 l/m 0,0 km/h (0 Bft) SO 146 -8,6 C 2,4 C
11.12.2019 13:02 2,4 C 44 % 1015,2 hPa 0,0 l/m 0,0 km/h (0 Bft) O-NO 70 -8,6 C 2,4 C
11.12.2019 13:01 2,3 C 45 % 1015,2 hPa 0,0 l/m 0,0 km/h (0 Bft) SO 133 -8,4 C 2,3 C
11.12.2019 13:00 2,3 C 46 % 1015,2 hPa 0,0 l/m 0,0 km/h (0 Bft) O 88 -8,1 C 2,3 C
11.12.2019 12:59 2,3 C 46 % 1015,2 hPa 0,0 l/m 0,0 km/h (0 Bft) S-SO 150 -8,1 C 2,3 C
11.12.2019 12:58 2,3 C 45 % 1015,2 hPa 0,0 l/m 0,0 km/h (0 Bft) NO 36 -8,4 C 2,3 C
11.12.2019 12:57 2,3 C 46 % 1015,2 hPa 0,0 l/m 0,0 km/h (0 Bft) O-SO 111 -8,1 C 2,3 C
11.12.2019 12:56 2,3 C 47 % 1015,3 hPa 0,0 l/m 0,0 km/h (0 Bft) SO 130 -7,8 C 2,3 C
11.12.2019 12:55 2,2 C 47 % 1015,3 hPa 0,0 l/m 0,0 km/h (0 Bft) O-NO 59 -7,9 C 2,2 C
11.12.2019 12:54 2,2 C 46 % 1015,3 hPa 0,0 l/m 0,0 km/h (0 Bft) S-SO 164 -8,2 C 2,2 C
11.12.2019 12:53 2,2 C 45 % 1015,4 hPa 0,0 l/m 0,0 km/h (0 Bft) O-SO 114 -8,5 C 2,2 C
11.12.2019 12:52 2,2 C 46 % 1015,4 hPa 0,0 l/m 0,0 km/h (0 Bft) SO 132 -8,2 C 2,2 C
11.12.2019 12:51 2,2 C 46 % 1015,4 hPa 0,0 l/m 0,0 km/h (0 Bft) O-NO 75 -8,2 C 2,2 C
11.12.2019 12:50 2,2 C 46 % 1015,5 hPa 0,0 l/m 0,0 km/h (0 Bft) O-NO 59 -8,2 C 2,2 C
11.12.2019 12:49 2,2 C 46 % 1015,4 hPa 0,0 l/m 0,0 km/h (0 Bft) O-NO 68 -8,2 C 2,2 C
11.12.2019 12:48 2,2 C 46 % 1015,4 hPa 0,0 l/m 0,0 km/h (0 Bft) SW 232 -8,2 C 2,2 C
11.12.2019 12:47 2,2 C 49 % 1015,5 hPa 0,0 l/m 0,0 km/h (0 Bft) SO 135 -7,4 C 2,2 C
11.12.2019 12:46 2,2 C 50 % 1015,5 hPa 0,0 l/m 0,0 km/h (0 Bft) O 89 -7,1 C 2,2 C
11.12.2019 12:45 2,1 C 50 % 1015,5 hPa 0,0 l/m 0,0 km/h (0 Bft) SO 136 -7,2 C 2,1 C
11.12.2019 12:44 2,1 C 48 % 1015,5 hPa 0,0 l/m 0,0 km/h (0 Bft) S-SO 152 -7,7 C 2,1 C
11.12.2019 12:43 2,1 C 47 % 1015,5 hPa 0,0 l/m 0,0 km/h (0 Bft) SO 141 -8,0 C 2,1 C
11.12.2019 12:42 2,1 C 48 % 1015,6 hPa 0,0 l/m 0,0 km/h (0 Bft) O 92 -7,7 C 2,1 C
11.12.2019 12:38 2,0 C 50 % 1015,7 hPa 0,0 l/m 0,0 km/h (0 Bft) O-SO 113 -7,3 C 2,0 C
11.12.2019 12:37 1,9 C 49 % 1015,7 hPa 0,0 l/m 0,0 km/h (0 Bft) NO 42 -7,7 C 1,9 C
11.12.2019 12:36 1,9 C 50 % 1015,7 hPa 0,0 l/m 0,0 km/h (0 Bft) O-SO 121 -7,4 C 1,9 C
11.12.2019 12:35 1,8 C 49 % 1015,7 hPa 0,0 l/m 0,0 km/h (0 Bft) N-NW 346 -7,8 C 1,8 C
11.12.2019 12:34 1,8 C 51 % 1015,8 hPa 0,0 l/m 0,0 km/h (0 Bft) O 90 -7,2 C 1,8 C
11.12.2019 12:33 1,8 C 51 % 1015,8 hPa 0,0 l/m 0,0 km/h (0 Bft) O-SO 121 -7,2 C 1,8 C
11.12.2019 12:32 1,8 C 50 % 1015,8 hPa 0,0 l/m 0,0 km/h (0 Bft) O-SO 105 -7,5 C 1,8 C
11.12.2019 12:31 1,8 C 50 % 1015,9 hPa 0,0 l/m 0,0 km/h (0 Bft) NO 52 -7,5 C 1,8 C
11.12.2019 12:30 1,7 C 52 % 1015,8 hPa 0,0 l/m 0,0 km/h (0 Bft) SO 136 -7,1 C 1,7 C
11.12.2019 12:29 1,7 C 53 % 1015,9 hPa 0,0 l/m 0,0 km/h (0 Bft) N-NO 30 -6,8 C 1,7 C
11.12.2019 12:28 1,7 C 53 % 1016,0 hPa 0,0 l/m 0,0 km/h (0 Bft) O-SO 108 -6,8 C 1,7 C
11.12.2019 12:27 1,7 C 53 % 1016,0 hPa 0,0 l/m 0,0 km/h (0 Bft) N 11 -6,8 C 1,7 C
11.12.2019 12:26 1,7 C 53 % 1016,0 hPa 0,0 l/m 1,7 km/h (1 Bft) NO 46 -6,8 C 1,7 C
11.12.2019 12:25 1,7 C 52 % 1016,1 hPa 0,0 l/m 6,5 km/h (2 Bft) NO 46 -7,1 C 1,6 C
11.12.2019 12:24 1,7 C 53 % 1016,1 hPa 0,0 l/m 6,5 km/h (2 Bft) O-SO 111 -6,8 C 1,6 C
11.12.2019 12:23 1,7 C 53 % 1016,1 hPa 0,0 l/m 0,0 km/h (0 Bft) S-SO 148 -6,8 C 1,7 C
11.12.2019 12:22 1,7 C 53 % 1016,1 hPa 0,0 l/m 0,0 km/h (0 Bft) O-NO 69 -6,8 C 1,7 C
11.12.2019 12:21 1,7 C 53 % 1016,2 hPa 0,0 l/m 0,0 km/h (0 Bft) O-NO 63 -6,8 C 1,7 C
11.12.2019 12:20 1,7 C 54 % 1016,2 hPa 0,0 l/m 0,0 km/h (0 Bft) S-SO 155 -6,6 C 1,7 C
11.12.2019 12:19 1,7 C 55 % 1016,2 hPa 0,0 l/m 6,5 km/h (2 Bft) N-NO 26 -6,4 C 1,6 C
11.12.2019 12:18 1,8 C 58 % 1016,2 hPa 0,0 l/m 9,6 km/h (2 Bft) N-NO 24 -5,6 C -1,1 C
11.12.2019 12:17 1,8 C 58 % 1016,3 hPa 0,0 l/m 1,7 km/h (1 Bft) O 96 -5,6 C 1,8 C
11.12.2019 12:16 1,8 C 59 % 1016,3 hPa 0,0 l/m 0,0 km/h (0 Bft) N 5 -5,3 C 1,8 C
11.12.2019 12:15 1,8 C 58 % 1016,4 hPa 0,0 l/m 0,0 km/h (0 Bft) SO 132 -5,6 C 1,8 C
11.12.2019 12:14 1,8 C 58 % 1016,4 hPa 0,0 l/m 0,0 km/h (0 Bft) SO 130 -5,6 C 1,8 C
11.12.2019 12:13 1,7 C 58 % 1016,4 hPa 0,0 l/m 0,0 km/h (0 Bft) S-SO 161 -5,7 C 1,7 C
11.12.2019 12:12 1,7 C 59 % 1016,4 hPa 0,0 l/m 0,0 km/h (0 Bft) O-SO 111 -5,4 C 1,7 C
11.12.2019 12:11 1,7 C 58 % 1016,5 hPa 0,0 l/m 0,0 km/h (0 Bft) S-SO 149 -5,7 C 1,7 C
11.12.2019 12:10 1,7 C 60 % 1016,5 hPa 0,0 l/m 0,0 km/h (0 Bft) SO 139 -5,2 C 1,7 C
11.12.2019 12:09 1,7 C 60 % 1016,5 hPa 0,0 l/m 0,0 km/h (0 Bft) S-SO 154 -5,2 C 1,7 C
11.12.2019 12:08 1,7 C 59 % 1016,5 hPa 0,0 l/m 0,0 km/h (0 Bft) O-SO 107 -5,4 C 1,7 C
11.12.2019 12:07 1,6 C 59 % 1016,5 hPa 0,0 l/m 1,7 km/h (1 Bft) S 181 -5,5 C 1,6 C
11.12.2019 12:06 1,6 C 59 % 1016,5 hPa 0,0 l/m 0,0 km/h (0 Bft) SO 134 -5,5 C 1,6 C
11.12.2019 12:05 1,6 C 59 % 1016,6 hPa 0,0 l/m 0,0 km/h (0 Bft) N 5 -5,5 C 1,6 C
11.12.2019 12:04 1,6 C 60 % 1016,6 hPa 0,0 l/m 0,0 km/h (0 Bft) O-NO 58 -5,3 C 1,6 C
11.12.2019 12:03 1,6 C 62 % 1016,6 hPa 0,0 l/m 13,0 km/h (3 Bft) O-SO 103 -4,9 C -3,8 C
11.12.2019 12:02 1,7 C 62 % 1016,7 hPa 0,0 l/m 0,0 km/h (0 Bft) SO 142 -4,8 C 1,7 C
11.12.2019 12:01 1,7 C 62 % 1016,7 hPa 0,0 l/m 0,0 km/h (0 Bft) O 87 -4,8 C 1,7 C
11.12.2019 12:00 1,7 C 64 % 1016,7 hPa 0,0 l/m 0,0 km/h (0 Bft) NO 46 -4,4 C 1,7 C
11.12.2019 11:59 1,7 C 65 % 1016,7 hPa 0,0 l/m 0,0 km/h (0 Bft) SO 139 -4,2 C 1,7 C
11.12.2019 11:58 1,6 C 65 % 1016,7 hPa 0,0 l/m 0,0 km/h (0 Bft) O-NO 57 -4,3 C 1,6 C
11.12.2019 11:57 1,6 C 65 % 1016,7 hPa 0,0 l/m 0,0 km/h (0 Bft) SO 144 -4,3 C 1,6 C
11.12.2019 11:56 1,5 C 65 % 1016,7 hPa 0,0 l/m 0,0 km/h (0 Bft) S-SO 153 -4,3 C 1,5 C
11.12.2019 11:55 1,5 C 65 % 1016,7 hPa 0,0 l/m 0,0 km/h (0 Bft) SO 144 -4,3 C 1,5 C
11.12.2019 11:54 1,4 C 64 % 1016,7 hPa 0,0 l/m 0,0 km/h (0 Bft) SO 141 -4,6 C 1,4 C
11.12.2019 11:53 1,4 C 64 % 1016,8 hPa 0,0 l/m 0,0 km/h (0 Bft) SO 130 -4,6 C 1,4 C
11.12.2019 11:52 1,4 C 63 % 1016,8 hPa 0,0 l/m 3,1 km/h (1 Bft) S-SO 148 -4,9 C 1,4 C
11.12.2019 11:51 1,4 C 63 % 1016,8 hPa 0,0 l/m 0,0 km/h (0 Bft) S-SO 151 -4,9 C 1,4 C
11.12.2019 11:50 1,3 C 64 % 1016,9 hPa 0,0 l/m 0,0 km/h (0 Bft) S-SO 152 -4,7 C 1,3 C
11.12.2019 11:49 1,3 C 64 % 1016,9 hPa 0,0 l/m 0,0 km/h (0 Bft) SO 126 -4,7 C 1,3 C
11.12.2019 11:48 1,3 C 63 % 1016,9 hPa 0,0 l/m 0,0 km/h (0 Bft) S-SO 151 -5,0 C 1,3 C
11.12.2019 11:47 1,3 C 64 % 1016,9 hPa 0,0 l/m 0,0 km/h (0 Bft) O-NO 76 -4,7 C 1,3 C
11.12.2019 11:46 1,2 C 64 % 1016,9 hPa 0,0 l/m 14,4 km/h (3 Bft) SO 143 -4,8 C -5,2 C
11.12.2019 11:45 1,2 C 64 % 1017,0 hPa 0,0 l/m 0,0 km/h (0 Bft) O-SO 103 -4,8 C 1,2 C
11.12.2019 11:44 1,2 C 65 % 1017,0 hPa 0,0 l/m 0,0 km/h (0 Bft) SO 129 -4,6 C 1,2 C
11.12.2019 11:43 1,2 C 66 % 1017,0 hPa 0,0 l/m 0,0 km/h (0 Bft) S 182 -4,4 C 1,2 C
11.12.2019 11:42 1,3 C 66 % 1017,0 hPa 0,0 l/m 0,0 km/h (0 Bft) NO 40 -4,3 C 1,3 C
11.12.2019 11:41 1,3 C 66 % 1017,0 hPa 0,0 l/m 3,1 km/h (1 Bft) NO 46 -4,3 C 1,3 C
11.12.2019 11:40 1,4 C 66 % 1017,0 hPa 0,0 l/m 0,0 km/h (0 Bft) O-NO 62 -4,2 C 1,4 C
11.12.2019 11:39 1,6 C 65 % 1017,0 hPa 0,0 l/m 4,8 km/h (1 Bft) W-SW 240 -4,3 C 1,6 C
11.12.2019 11:36 1,7 C 68 % 1017,1 hPa 0,0 l/m 0,0 km/h (0 Bft) NO 44 -3,6 C 1,7 C
11.12.2019 11:35 1,7 C 68 % 1017,1 hPa 0,0 l/m 0,0 km/h (0 Bft) O-SO 103 -3,6 C 1,7 C
11.12.2019 11:34 1,6 C 69 % 1017,1 hPa 0,0 l/m 0,0 km/h (0 Bft) O 86 -3,5 C 1,6 C
11.12.2019 11:33 1,6 C 69 % 1017,2 hPa 0,0 l/m 0,0 km/h (0 Bft) S-SO 150 -3,5 C 1,6 C
11.12.2019 11:32 1,5 C 69 % 1017,2 hPa 0,0 l/m 0,0 km/h (0 Bft) NO 37 -3,6 C 1,5 C
11.12.2019 11:30 1,4 C 69 % 1017,2 hPa 0,0 l/m 0,0 km/h (0 Bft) O 87 -3,7 C 1,4 C
11.12.2019 11:29 1,4 C 69 % 1017,3 hPa 0,0 l/m 0,0 km/h (0 Bft) SO 142 -3,7 C 1,4 C
11.12.2019 11:28 1,3 C 70 % 1017,3 hPa 0,0 l/m 0,0 km/h (0 Bft) S-SO 167 -3,6 C 1,3 C
11.12.2019 11:27 1,3 C 70 % 1017,2 hPa 0,0 l/m 0,0 km/h (0 Bft) O-NO 77 -3,6 C 1,3 C
11.12.2019 11:26 1,3 C 71 % 1017,3 hPa 0,0 l/m 0,0 km/h (0 Bft) O-SO 111 -3,4 C 1,3 C
11.12.2019 11:25 1,3 C 71 % 1017,3 hPa 0,0 l/m 0,0 km/h (0 Bft) O-NO 71 -3,4 C 1,3 C
11.12.2019 11:24 1,2 C 71 % 1017,3 hPa 0,0 l/m 0,0 km/h (0 Bft) N-NO 20 -3,5 C 1,2 C
11.12.2019 11:23 1,2 C 70 % 1017,3 hPa 0,0 l/m 0,0 km/h (0 Bft) O 97 -3,7 C 1,2 C
11.12.2019 11:22 1,1 C 70 % 1017,3 hPa 0,0 l/m 0,0 km/h (0 Bft) S-SO 156 -3,7 C 1,1 C
11.12.2019 11:21 1,1 C 70 % 1017,4 hPa 0,0 l/m 0,0 km/h (0 Bft) S-SO 163 -3,7 C 1,1 C
11.12.2019 11:20 1,1 C 71 % 1017,3 hPa 0,0 l/m 0,0 km/h (0 Bft) NO 55 -3,6 C 1,1 C
11.12.2019 11:19 1,1 C 71 % 1017,4 hPa 0,0 l/m 0,0 km/h (0 Bft) S-SO 159 -3,6 C 1,1 C
11.12.2019 11:18 1,1 C 71 % 1017,3 hPa 0,0 l/m 0,0 km/h (0 Bft) S-SO 155 -3,6 C 1,1 C
11.12.2019 11:17 1,1 C 72 % 1017,4 hPa 0,0 l/m 0,0 km/h (0 Bft) S 184 -3,4 C 1,1 C
11.12.2019 11:16 1,1 C 72 % 1017,4 hPa 0,0 l/m 0,0 km/h (0 Bft) O-NO 62 -3,4 C 1,1 C
11.12.2019 11:15 1,1 C 72 % 1017,4 hPa 0,0 l/m 0,0 km/h (0 Bft) S-SO 159 -3,4 C 1,1 C
11.12.2019 11:14 1,1 C 73 % 1017,4 hPa 0,0 l/m 0,0 km/h (0 Bft) S-SO 158 -3,2 C 1,1 C
11.12.2019 11:13 1,0 C 73 % 1017,4 hPa 0,0 l/m 0,0 km/h (0 Bft) O-SO 117 -3,3 C 1,0 C
11.12.2019 11:12 0,9 C 73 % 1017,4 hPa 0,0 l/m 0,0 km/h (0 Bft) O-NO 67 -3,4 C 0,9 C
11.12.2019 11:11 0,9 C 74 % 1017,4 hPa 0,0 l/m 0,0 km/h (0 Bft) O 98 -3,2 C 0,9 C
11.12.2019 11:09 0,9 C 75 % 1017,5 hPa 0,0 l/m 0,0 km/h (0 Bft) SO 140 -3,0 C 0,9 C
11.12.2019 11:08 0,8 C 75 % 1017,5 hPa 0,0 l/m 0,0 km/h (0 Bft) O 97 -3,1 C 0,8 C
11.12.2019 11:07 0,8 C 75 % 1017,6 hPa 0,0 l/m 1,7 km/h (1 Bft) O-NO 67 -3,1 C 0,8 C
11.12.2019 11:06 0,8 C 75 % 1017,6 hPa 0,0 l/m 0,0 km/h (0 Bft) O-NO 71 -3,1 C 0,8 C
11.12.2019 11:05 0,8 C 75 % 1017,6 hPa 0,0 l/m 0,0 km/h (0 Bft) O-NO 76 -3,1 C 0,8 C
11.12.2019 11:04 0,8 C 76 % 1017,6 hPa 0,0 l/m 0,0 km/h (0 Bft) S-SO 158 -2,9 C 0,8 C
11.12.2019 11:03 0,8 C 76 % 1017,6 hPa 0,0 l/m 1,7 km/h (1 Bft) S-SO 158 -2,9 C 0,8 C
11.12.2019 11:02 0,7 C 76 % 1017,6 hPa 0,0 l/m 0,0 km/h (0 Bft) S-SO 158 -3,0 C 0,7 C
11.12.2019 11:01 0,7 C 77 % 1017,6 hPa 0,0 l/m 0,0 km/h (0 Bft) S-SW 194 -2,9 C 0,7 C
11.12.2019 11:00 0,7 C 77 % 1017,7 hPa 0,0 l/m 0,0 km/h (0 Bft) S-SO 148 -2,9 C 0,7 C
11.12.2019 10:59 0,7 C 77 % 1017,6 hPa 0,0 l/m 0,0 km/h (0 Bft) SO 140 -2,9 C 0,7 C
11.12.2019 10:58 0,7 C 77 % 1017,7 hPa 0,0 l/m 0,0 km/h (0 Bft) O 82 -2,9 C 0,7 C
11.12.2019 10:57 0,7 C 77 % 1017,8 hPa 0,0 l/m 0,0 km/h (0 Bft) S-SO 156 -2,9 C 0,7 C
11.12.2019 10:56 0,7 C 78 % 1017,8 hPa 0,0 l/m 9,6 km/h (2 Bft) NO 48 -2,7 C -2,3 C
11.12.2019 10:55 0,7 C 79 % 1017,8 hPa 0,0 l/m 0,0 km/h (0 Bft) S-SO 165 -2,5 C 0,7 C
11.12.2019 10:54 0,7 C 79 % 1017,8 hPa 0,0 l/m 0,0 km/h (0 Bft) SO 144 -2,5 C 0,7 C
11.12.2019 10:53 0,7 C 79 % 1017,8 hPa 0,0 l/m 1,7 km/h (1 Bft) SO 128 -2,5 C 0,7 C
11.12.2019 10:52 0,7 C 79 % 1017,8 hPa 0,0 l/m 3,1 km/h (1 Bft) S-SO 157 -2,5 C 0,7 C
11.12.2019 10:51 0,7 C 79 % 1017,8 hPa 0,0 l/m 0,0 km/h (0 Bft) S-SO 162 -2,5 C 0,7 C
11.12.2019 10:50 0,7 C 80 % 1017,9 hPa 0,0 l/m 0,0 km/h (0 Bft) S-SO 157 -2,3 C 0,7 C
11.12.2019 10:49 0,6 C 80 % 1017,9 hPa 0,0 l/m 0,0 km/h (0 Bft) SO 146 -2,4 C 0,6 C
11.12.2019 10:48 0,6 C 81 % 1017,9 hPa 0,0 l/m 3,1 km/h (1 Bft) SO 144 -2,3 C 0,6 C
11.12.2019 10:47 0,6 C 81 % 1017,9 hPa 0,0 l/m 0,0 km/h (0 Bft) SO 131 -2,3 C 0,6 C
11.12.2019 10:46 0,6 C 82 % 1018,1 hPa 0,0 l/m 0,0 km/h (0 Bft) S 178 -2,1 C 0,6 C
11.12.2019 10:45 0,5 C 82 % 1018,0 hPa 0,0 l/m 1,7 km/h (1 Bft) SO 145 -2,2 C 0,5 C
11.12.2019 10:44 0,5 C 83 % 1018,1 hPa 0,0 l/m 1,7 km/h (1 Bft) S-SO 163 -2,0 C 0,5 C
11.12.2019 10:43 0,4 C 82 % 1018,1 hPa 0,0 l/m 0,0 km/h (0 Bft) O 96 -2,3 C 0,4 C
11.12.2019 10:42 0,4 C 83 % 1018,1 hPa 0,0 l/m 0,0 km/h (0 Bft) O-NO 70 -2,1 C 0,4 C
11.12.2019 10:41 0,4 C 83 % 1018,1 hPa 0,0 l/m 0,0 km/h (0 Bft) O 96 -2,1 C 0,4 C
11.12.2019 10:40 0,4 C 83 % 1018,2 hPa 0,0 l/m 0,0 km/h (0 Bft) SO 136 -2,1 C 0,4 C
11.12.2019 10:39 0,3 C 84 % 1018,2 hPa 0,0 l/m 0,0 km/h (0 Bft) S 182 -2,1 C 0,3 C
11.12.2019 10:38 0,3 C 84 % 1018,3 hPa 0,0 l/m 0,0 km/h (0 Bft) O-NO 61 -2,1 C 0,3 C
11.12.2019 10:37 0,3 C 84 % 1018,2 hPa 0,0 l/m 0,0 km/h (0 Bft) SO 142 -2,1 C 0,3 C
11.12.2019 10:34 0,2 C 84 % 1018,3 hPa 0,0 l/m 0,0 km/h (0 Bft) O 91 -2,2 C 0,2 C
11.12.2019 10:33 0,2 C 84 % 1018,3 hPa 0,0 l/m 0,0 km/h (0 Bft) O-SO 123 -2,2 C 0,2 C
11.12.2019 10:32 0,2 C 85 % 1018,4 hPa 0,0 l/m 0,0 km/h (0 Bft) O-NO 59 -2,0 C 0,2 C
11.12.2019 10:31 0,2 C 85 % 1018,4 hPa 0,0 l/m 0,0 km/h (0 Bft) S 175 -2,0 C 0,2 C
11.12.2019 10:30 0,2 C 85 % 1018,4 hPa 0,0 l/m 0,0 km/h (0 Bft) SO 135 -2,0 C 0,2 C
11.12.2019 10:29 0,2 C 85 % 1018,4 hPa 0,0 l/m 0,0 km/h (0 Bft) O-NO 76 -2,0 C 0,2 C
11.12.2019 10:28 0,2 C 86 % 1018,5 hPa 0,0 l/m 0,0 km/h (0 Bft) O 101 -1,9 C 0,2 C
11.12.2019 10:27 0,1 C 86 % 1018,4 hPa 0,0 l/m 0,0 km/h (0 Bft) O-SO 112 -2,0 C 0,1 C
11.12.2019 10:26 0,1 C 86 % 1018,4 hPa 0,0 l/m 0,0 km/h (0 Bft) S-SO 159 -2,0 C 0,1 C
11.12.2019 10:25 0,1 C 86 % 1018,5 hPa 0,0 l/m 0,0 km/h (0 Bft) O-SO 119 -2,0 C 0,1 C
11.12.2019 10:24 0,1 C 87 % 1018,5 hPa 0,0 l/m 0,0 km/h (0 Bft) SO 136 -1,8 C 0,1 C
11.12.2019 10:23 0,1 C 87 % 1018,5 hPa 0,0 l/m 0,0 km/h (0 Bft) O 98 -1,8 C 0,1 C
11.12.2019 10:22 0,0 C 87 % 1018,6 hPa 0,0 l/m 0,0 km/h (0 Bft) SO 127 -1,9 C 0,0 C
11.12.2019 10:21 -0,1 C 87 % 1018,6 hPa 0,0 l/m 0,0 km/h (0 Bft) S-SO 160 -2,0 C -0,1 C
11.12.2019 10:20 -0,1 C 87 % 1018,6 hPa 0,0 l/m 0,0 km/h (0 Bft) O-SO 115 -2,0 C -0,1 C
11.12.2019 10:19 -0,1 C 87 % 1018,6 hPa 0,0 l/m 0,0 km/h (0 Bft) O-NO 57 -2,0 C -0,1 C
11.12.2019 10:18 -0,1 C 88 % 1018,6 hPa 0,0 l/m 0,0 km/h (0 Bft) NO 56 -1,8 C -0,1 C
11.12.2019 10:17 -0,1 C 88 % 1018,6 hPa 0,0 l/m 0,0 km/h (0 Bft) NO 49 -1,8 C -0,1 C
11.12.2019 10:16 -0,1 C 88 % 1018,7 hPa 0,0 l/m 0,0 km/h (0 Bft) O 101 -1,8 C -0,1 C
11.12.2019 10:15 -0,1 C 88 % 1018,7 hPa 0,0 l/m 0,0 km/h (0 Bft) S 175 -1,8 C -0,1 C
11.12.2019 10:14 -0,2 C 88 % 1018,8 hPa 0,0 l/m 0,0 km/h (0 Bft) SO 142 -1,9 C -0,2 C
11.12.2019 10:13 -0,2 C 88 % 1018,7 hPa 0,0 l/m 0,0 km/h (0 Bft) SO 145 -1,9 C -0,2 C
11.12.2019 10:12 -0,3 C 88 % 1018,7 hPa 0,0 l/m 0,0 km/h (0 Bft) SO 137 -2,0 C -0,3 C
11.12.2019 10:11 -0,3 C 88 % 1018,8 hPa 0,0 l/m 0,0 km/h (0 Bft) SO 141 -2,0 C -0,3 C
11.12.2019 10:10 -0,3 C 89 % 1018,8 hPa 0,0 l/m 0,0 km/h (0 Bft) S-SO 165 -1,9 C -0,3 C
11.12.2019 10:09 -0,4 C 89 % 1018,8 hPa 0,0 l/m 0,0 km/h (0 Bft) SO 146 -2,0 C -0,4 C
11.12.2019 10:08 -0,4 C 89 % 1018,8 hPa 0,0 l/m 0,0 km/h (0 Bft) O-SO 117 -2,0 C -0,4 C
11.12.2019 10:07 -0,5 C 89 % 1018,8 hPa 0,0 l/m 0,0 km/h (0 Bft) O-SO 121 -2,1 C -0,5 C
11.12.2019 10:06 -0,5 C 89 % 1018,8 hPa 0,0 l/m 0,0 km/h (0 Bft) S-SO 149 -2,1 C -0,5 C
11.12.2019 10:05 -0,6 C 89 % 1018,9 hPa 0,0 l/m 0,0 km/h (0 Bft) O 99 -2,2 C -0,6 C
11.12.2019 10:04 -0,6 C 89 % 1018,9 hPa 0,0 l/m 0,0 km/h (0 Bft) S-SO 158 -2,2 C -0,6 C
11.12.2019 10:03 -0,6 C 89 % 1018,9 hPa 0,0 l/m 0,0 km/h (0 Bft) NO 41 -2,2 C -0,6 C
11.12.2019 10:02 -0,7 C 89 % 1018,9 hPa 0,0 l/m 0,0 km/h (0 Bft) O 97 -2,3 C -0,7 C
11.12.2019 10:01 -0,7 C 89 % 1018,8 hPa 0,0 l/m 0,0 km/h (0 Bft) SO 134 -2,3 C -0,7 C
11.12.2019 10:00 -0,7 C 89 % 1018,9 hPa 0,0 l/m 0,0 km/h (0 Bft) SO 138 -2,3 C -0,7 C
11.12.2019 09:59 -0,7 C 89 % 1018,8 hPa 0,0 l/m 0,0 km/h (0 Bft) SO 144 -2,3 C -0,7 C
11.12.2019 09:58 -0,8 C 89 % 1018,9 hPa 0,0 l/m 0,0 km/h (0 Bft) O 84 -2,4 C -0,8 C
11.12.2019 09:57 -0,8 C 89 % 1018,9 hPa 0,0 l/m 0,0 km/h (0 Bft) NO 36 -2,4 C -0,8 C
11.12.2019 09:56 -0,8 C 89 % 1018,9 hPa 0,0 l/m 0,0 km/h (0 Bft) S-SO 159 -2,4 C -0,8 C
11.12.2019 09:55 -0,9 C 89 % 1018,9 hPa 0,0 l/m 0,0 km/h (0 Bft) O 84 -2,5 C -0,9 C
11.12.2019 09:54 -0,9 C 89 % 1019,0 hPa 0,0 l/m 0,0 km/h (0 Bft) O-SO 108 -2,5 C -0,9 C
11.12.2019 09:53 -0,9 C 90 % 1018,9 hPa 0,0 l/m 0,0 km/h (0 Bft) SO 127 -2,3 C -0,9 C
11.12.2019 09:52 -0,9 C 90 % 1019,0 hPa 0,0 l/m 0,0 km/h (0 Bft) O 92 -2,3 C -0,9 C
11.12.2019 09:51 -1,0 C 90 % 1018,9 hPa 0,0 l/m 0,0 km/h (0 Bft) N-NO 33 -2,4 C -1,0 C
11.12.2019 09:50 -1,1 C 90 % 1019,0 hPa 0,0 l/m 0,0 km/h (0 Bft) SO 133 -2,5 C -1,1 C
11.12.2019 09:49 -1,1 C 90 % 1019,0 hPa 0,0 l/m 0,0 km/h (0 Bft) O-SO 104 -2,5 C -1,1 C
11.12.2019 09:48 -1,1 C 90 % 1019,0 hPa 0,0 l/m 0,0 km/h (0 Bft) O 92 -2,5 C -1,1 C
11.12.2019 09:47 -1,2 C 90 % 1019,0 hPa 0,0 l/m 0,0 km/h (0 Bft) O-SO 109 -2,6 C -1,2 C
11.12.2019 09:46 -1,2 C 90 % 1019,0 hPa 0,0 l/m 0,0 km/h (0 Bft) O-NO 64 -2,6 C -1,2 C
11.12.2019 09:45 -1,2 C 90 % 1019,1 hPa 0,0 l/m 0,0 km/h (0 Bft) O-NO 64 -2,6 C -1,2 C
11.12.2019 09:44 -1,2 C 90 % 1019,1 hPa 0,0 l/m 0,0 km/h (0 Bft) S-SO 150 -2,6 C -1,2 C
11.12.2019 09:43 -1,2 C 90 % 1019,1 hPa 0,0 l/m 0,0 km/h (0 Bft) NO 50 -2,6 C -1,2 C
11.12.2019 09:42 -1,3 C 90 % 1019,1 hPa 0,0 l/m 0,0 km/h (0 Bft) O 98 -2,7 C -1,3 C
11.12.2019 09:41 -1,3 C 90 % 1019,1 hPa 0,0 l/m 0,0 km/h (0 Bft) O 100 -2,7 C -1,3 C
11.12.2019 09:40 -1,3 C 90 % 1019,1 hPa 0,0 l/m 0,0 km/h (0 Bft) O-SO 123 -2,7 C -1,3 C
11.12.2019 09:39 -1,4 C 90 % 1019,1 hPa 0,0 l/m 0,0 km/h (0 Bft) SO 131 -2,8 C -1,4 C
11.12.2019 09:38 -1,4 C 90 % 1019,1 hPa 0,0 l/m 0,0 km/h (0 Bft) O-SO 103 -2,8 C -1,4 C
11.12.2019 09:37 -1,4 C 90 % 1019,1 hPa 0,0 l/m 0,0 km/h (0 Bft) SO 132 -2,8 C -1,4 C
11.12.2019 09:36 -1,4 C 90 % 1019,1 hPa 0,0 l/m 0,0 km/h (0 Bft) SO 132 -2,8 C -1,4 C
11.12.2019 09:35 -1,5 C 90 % 1019,1 hPa 0,0 l/m 0,0 km/h (0 Bft) O 90 -2,9 C -1,5 C
11.12.2019 09:30 -1,6 C 90 % 1019,2 hPa 0,0 l/m 0,0 km/h (0 Bft) S-SO 157 -3,0 C -1,6 C
11.12.2019 09:29 -1,7 C 91 % 1019,2 hPa 0,0 l/m 0,0 km/h (0 Bft) O-SO 104 -3,0 C -1,7 C
11.12.2019 09:28 -1,7 C 91 % 1019,2 hPa 0,0 l/m 0,0 km/h (0 Bft) O-SO 111 -3,0 C -1,7 C
11.12.2019 09:27 -1,8 C 90 % 1019,2 hPa 0,0 l/m 0,0 km/h (0 Bft) S-SO 150 -3,2 C -1,8 C
11.12.2019 09:26 -1,9 C 90 % 1019,2 hPa 0,0 l/m 0,0 km/h (0 Bft) SO 125 -3,3 C -1,9 C
11.12.2019 09:25 -2,0 C 91 % 1019,2 hPa 0,0 l/m 0,0 km/h (0 Bft) O 90 -3,3 C -2,0 C
11.12.2019 09:24 -2,1 C 91 % 1019,2 hPa 0,0 l/m 0,0 km/h (0 Bft) O 97 -3,4 C -2,1 C
11.12.2019 09:23 -2,2 C 90 % 1019,3 hPa 0,0 l/m 0,0 km/h (0 Bft) O-SO 104 -3,6 C -2,2 C
11.12.2019 09:22 -2,2 C 90 % 1019,3 hPa 0,0 l/m 0,0 km/h (0 Bft) O-SO 105 -3,6 C -2,2 C
11.12.2019 09:21 -2,3 C 91 % 1019,3 hPa 0,0 l/m 0,0 km/h (0 Bft) O 84 -3,6 C -2,3 C
11.12.2019 09:20 -2,4 C 90 % 1019,3 hPa 0,0 l/m 0,0 km/h (0 Bft) SO 133 -3,8 C -2,4 C
11.12.2019 09:19 -2,6 C 90 % 1019,3 hPa 0,0 l/m 0,0 km/h (0 Bft) O 99 -4,0 C -2,6 C
11.12.2019 09:18 -2,7 C 90 % 1019,3 hPa 0,0 l/m 0,0 km/h (0 Bft) O 99 -4,1 C -2,7 C
11.12.2019 09:17 -2,8 C 91 % 1019,4 hPa 0,0 l/m 0,0 km/h (0 Bft) O 80 -4,1 C -2,8 C
11.12.2019 09:16 -2,8 C 91 % 1019,4 hPa 0,0 l/m 0,0 km/h (0 Bft) O 80 -4,1 C -2,8 C
11.12.2019 09:15 -2,9 C 90 % 1019,5 hPa 0,0 l/m 0,0 km/h (0 Bft) O 80 -4,3 C -2,9 C
11.12.2019 09:14 -3,0 C 90 % 1019,4 hPa 0,0 l/m 0,0 km/h (0 Bft) NO 36 -4,4 C -3,0 C
11.12.2019 09:13 -3,1 C 90 % 1019,4 hPa 0,0 l/m 0,0 km/h (0 Bft) O-SO 103 -4,5 C -3,1 C
11.12.2019 09:12 -3,1 C 90 % 1019,3 hPa 0,0 l/m 0,0 km/h (0 Bft) NO 46 -4,5 C -3,1 C
11.12.2019 09:11 -3,2 C 90 % 1019,4 hPa 0,0 l/m 0,0 km/h (0 Bft) NO 46 -4,6 C -3,2 C
11.12.2019 09:10 -3,3 C 90 % 1019,4 hPa 0,0 l/m 0,0 km/h (0 Bft) NO 46 -4,7 C -3,3 C
11.12.2019 09:09 -3,3 C 90 % 1019,4 hPa 0,0 l/m 0,0 km/h (0 Bft) NO 46 -4,7 C -3,3 C
11.12.2019 09:07 -3,5 C 90 % 1019,4 hPa 0,0 l/m 0,0 km/h (0 Bft) NO 46 -4,9 C -3,5 C
11.12.2019 09:06 -3,6 C 90 % 1019,4 hPa 0,0 l/m 0,0 km/h (0 Bft) NO 46 -5,0 C -3,6 C
11.12.2019 09:05 -3,6 C 90 % 1019,4 hPa 0,0 l/m 0,0 km/h (0 Bft) NO 46 -5,0 C -3,6 C
11.12.2019 09:04 -3,7 C 90 % 1019,4 hPa 0,0 l/m 0,0 km/h (0 Bft) NO 46 -5,1 C -3,7 C
11.12.2019 09:03 -3,7 C 90 % 1019,5 hPa 0,0 l/m 0,0 km/h (0 Bft) NO 46 -5,1 C -3,7 C
11.12.2019 09:02 -3,8 C 90 % 1019,5 hPa 0,0 l/m 0,0 km/h (0 Bft) NO 46 -5,2 C -3,8 C
11.12.2019 09:01 -3,8 C 90 % 1019,6 hPa 0,0 l/m 0,0 km/h (0 Bft) NO 45 -5,2 C -3,8 C
11.12.2019 09:00 -3,8 C 90 % 1019,5 hPa 0,0 l/m 0,0 km/h (0 Bft) NO 45 -5,2 C -3,8 C
11.12.2019 08:59 -3,8 C 90 % 1019,6 hPa 0,0 l/m 0,0 km/h (0 Bft) NO 45 -5,2 C -3,8 C
11.12.2019 08:58 -3,8 C 90 % 1019,6 hPa 0,0 l/m 0,0 km/h (0 Bft) NO 45 -5,2 C -3,8 C
11.12.2019 08:57 -3,9 C 90 % 1019,6 hPa 0,0 l/m 0,0 km/h (0 Bft) NO 45 -5,3 C -3,9 C
11.12.2019 08:56 -3,9 C 90 % 1019,6 hPa 0,0 l/m 0,0 km/h (0 Bft) NO 45 -5,3 C -3,9 C
11.12.2019 08:55 -3,9 C 90 % 1019,6 hPa 0,0 l/m 0,0 km/h (0 Bft) NO 45 -5,3 C -3,9 C
11.12.2019 08:54 -3,9 C 90 % 1019,7 hPa 0,0 l/m 0,0 km/h (0 Bft) NO 45 -5,3 C -3,9 C
11.12.2019 08:53 -3,9 C 90 % 1019,6 hPa 0,0 l/m 0,0 km/h (0 Bft) NO 45 -5,3 C -3,9 C
11.12.2019 08:52 -3,9 C 90 % 1019,7 hPa 0,0 l/m 0,0 km/h (0 Bft) NO 45 -5,3 C -3,9 C
11.12.2019 08:51 -3,9 C 90 % 1019,7 hPa 0,0 l/m 0,0 km/h (0 Bft) NO 45 -5,3 C -3,9 C
11.12.2019 08:50 -3,9 C 90 % 1019,6 hPa 0,0 l/m 0,0 km/h (0 Bft) NO 45 -5,3 C -3,9 C
11.12.2019 08:49 -4,0 C 90 % 1019,7 hPa 0,0 l/m 0,0 km/h (0 Bft) NO 45 -5,4 C -4,0 C
11.12.2019 08:48 -4,0 C 90 % 1019,7 hPa 0,0 l/m 0,0 km/h (0 Bft) NO 45 -5,4 C -4,0 C
11.12.2019 08:47 -4,1 C 90 % 1019,7 hPa 0,0 l/m 0,0 km/h (0 Bft) NO 45 -5,5 C -4,1 C
11.12.2019 08:46 -4,1 C 90 % 1019,6 hPa 0,0 l/m 0,0 km/h (0 Bft) NO 45 -5,5 C -4,1 C
11.12.2019 08:45 -4,1 C 90 % 1019,6 hPa 0,0 l/m 0,0 km/h (0 Bft) NO 45 -5,5 C -4,1 C
11.12.2019 08:44 -4,1 C 90 % 1019,6 hPa 0,0 l/m 0,0 km/h (0 Bft) NO 45 -5,5 C -4,1 C
11.12.2019 08:43 -4,1 C 90 % 1019,6 hPa 0,0 l/m 0,0 km/h (0 Bft) NO 45 -5,5 C -4,1 C
11.12.2019 08:42 -4,1 C 90 % 1019,6 hPa 0,0 l/m 0,0 km/h (0 Bft) NO 45 -5,5 C -4,1 C
11.12.2019 08:41 -4,1 C 90 % 1019,7 hPa 0,0 l/m 0,0 km/h (0 Bft) NO 45 -5,5 C -4,1 C
11.12.2019 08:40 -4,1 C 90 % 1019,7 hPa 0,0 l/m 0,0 km/h (0 Bft) NO 45 -5,5 C -4,1 C
11.12.2019 08:39 -4,2 C 90 % 1019,6 hPa 0,0 l/m 0,0 km/h (0 Bft) NO 45 -5,6 C -4,2 C
11.12.2019 08:38 -4,2 C 90 % 1019,6 hPa 0,0 l/m 0,0 km/h (0 Bft) NO 45 -5,6 C -4,2 C
11.12.2019 08:37 -4,2 C 90 % 1019,7 hPa 0,0 l/m 0,0 km/h (0 Bft) NO 45 -5,6 C -4,2 C
11.12.2019 08:36 -4,2 C 90 % 1019,6 hPa 0,0 l/m 0,0 km/h (0 Bft) NO 45 -5,6 C -4,2 C
11.12.2019 08:35 -4,2 C 90 % 1019,6 hPa 0,0 l/m 0,0 km/h (0 Bft) NO 45 -5,6 C -4,2 C
11.12.2019 08:34 -4,2 C 90 % 1019,7 hPa 0,0 l/m 0,0 km/h (0 Bft) NO 44 -5,6 C -4,2 C
11.12.2019 08:33 -4,1 C 90 % 1019,7 hPa 0,0 l/m 0,0 km/h (0 Bft) NO 44 -5,5 C -4,1 C
11.12.2019 08:32 -4,1 C 90 % 1019,8 hPa 0,0 l/m 0,0 km/h (0 Bft) NO 44 -5,5 C -4,1 C
11.12.2019 08:31 -4,1 C 90 % 1019,8 hPa 0,0 l/m 0,0 km/h (0 Bft) NO 44 -5,5 C -4,1 C
11.12.2019 08:27 -4,0 C 90 % 1019,8 hPa 0,0 l/m 0,0 km/h (0 Bft) NO 44 -5,4 C -4,0 C
11.12.2019 08:26 -4,0 C 90 % 1019,8 hPa 0,0 l/m 0,0 km/h (0 Bft) NO 44 -5,4 C -4,0 C
11.12.2019 08:25 -4,0 C 90 % 1019,7 hPa 0,0 l/m 0,0 km/h (0 Bft) NO 44 -5,4 C -4,0 C
11.12.2019 08:24 -4,0 C 90 % 1019,8 hPa 0,0 l/m 0,0 km/h (0 Bft) NO 44 -5,4 C -4,0 C
11.12.2019 08:23 -4,0 C 90 % 1019,8 hPa 0,0 l/m 0,0 km/h (0 Bft) NO 44 -5,4 C -4,0 C
11.12.2019 08:22 -4,0 C 90 % 1019,8 hPa 0,0 l/m 0,0 km/h (0 Bft) NO 44 -5,4 C -4,0 C
11.12.2019 08:21 -4,0 C 90 % 1019,7 hPa 0,0 l/m 0,0 km/h (0 Bft) NO 44 -5,4 C -4,0 C
11.12.2019 08:20 -4,0 C 90 % 1019,7 hPa 0,0 l/m 0,0 km/h (0 Bft) NO 44 -5,4 C -4,0 C
11.12.2019 08:19 -4,1 C 90 % 1019,7 hPa 0,0 l/m 0,0 km/h (0 Bft) NO 44 -5,5 C -4,1 C
11.12.2019 08:18 -4,1 C 90 % 1019,7 hPa 0,0 l/m 0,0 km/h (0 Bft) NO 44 -5,5 C -4,1 C
11.12.2019 08:17 -4,1 C 90 % 1019,6 hPa 0,0 l/m 0,0 km/h (0 Bft) NO 44 -5,5 C -4,1 C
11.12.2019 08:16 -4,1 C 90 % 1019,7 hPa 0,0 l/m 0,0 km/h (0 Bft) NO 43 -5,5 C -4,1 C
11.12.2019 08:15 -4,1 C 90 % 1019,6 hPa 0,0 l/m 0,0 km/h (0 Bft) NO 43 -5,5 C -4,1 C
11.12.2019 08:14 -4,2 C 90 % 1019,6 hPa 0,0 l/m 0,0 km/h (0 Bft) NO 42 -5,6 C -4,2 C
11.12.2019 08:13 -4,3 C 90 % 1019,6 hPa 0,0 l/m 0,0 km/h (0 Bft) NO 49 -5,7 C -4,3 C
11.12.2019 08:12 -4,3 C 90 % 1019,6 hPa 0,0 l/m 0,0 km/h (0 Bft) N-NO 21 -5,7 C -4,3 C
11.12.2019 08:11 -4,4 C 90 % 1019,7 hPa 0,0 l/m 0,0 km/h (0 Bft) NO 54 -5,8 C -4,4 C
11.12.2019 08:10 -4,4 C 90 % 1019,6 hPa 0,0 l/m 0,0 km/h (0 Bft) NO 42 -5,8 C -4,4 C
11.12.2019 08:09 -4,4 C 90 % 1019,7 hPa 0,0 l/m 0,0 km/h (0 Bft) NO 42 -5,8 C -4,4 C
11.12.2019 08:08 -4,4 C 90 % 1019,7 hPa 0,0 l/m 0,0 km/h (0 Bft) NO 42 -5,8 C -4,4 C
11.12.2019 08:07 -4,4 C 91 % 1019,7 hPa 0,0 l/m 0,0 km/h (0 Bft) NO 45 -5,6 C -4,4 C
11.12.2019 08:06 -4,4 C 91 % 1019,7 hPa 0,0 l/m 0,0 km/h (0 Bft) NO 45 -5,6 C -4,4 C
11.12.2019 08:05 -4,4 C 91 % 1019,7 hPa 0,0 l/m 0,0 km/h (0 Bft) NO 45 -5,6 C -4,4 C
11.12.2019 08:04 -4,4 C 91 % 1019,7 hPa 0,0 l/m 0,0 km/h (0 Bft) NO 45 -5,6 C -4,4 C
11.12.2019 08:03 -4,4 C 91 % 1019,7 hPa 0,0 l/m 0,0 km/h (0 Bft) NO 45 -5,6 C -4,4 C
11.12.2019 08:02 -4,4 C 91 % 1019,7 hPa 0,0 l/m 0,0 km/h (0 Bft) NO 45 -5,6 C -4,4 C
11.12.2019 08:01 -4,4 C 91 % 1019,7 hPa 0,0 l/m 0,0 km/h (0 Bft) NO 45 -5,6 C -4,4 C
11.12.2019 08:00 -4,4 C 91 % 1019,7 hPa 0,0 l/m 0,0 km/h (0 Bft) NO 45 -5,6 C -4,4 C
11.12.2019 07:59 -4,4 C 91 % 1019,7 hPa 0,0 l/m 0,0 km/h (0 Bft) NO 45 -5,6 C -4,4 C
11.12.2019 07:58 -4,5 C 91 % 1019,8 hPa 0,0 l/m 0,0 km/h (0 Bft) NO 45 -5,7 C -4,5 C
11.12.2019 07:57 -4,5 C 91 % 1019,8 hPa 0,0 l/m 0,0 km/h (0 Bft) NO 45 -5,7 C -4,5 C
11.12.2019 07:56 -4,6 C 91 % 1019,8 hPa 0,0 l/m 0,0 km/h (0 Bft) NO 45 -5,8 C -4,6 C
11.12.2019 07:55 -4,7 C 91 % 1019,8 hPa 0,0 l/m 0,0 km/h (0 Bft) NO 45 -5,9 C -4,7 C
11.12.2019 07:54 -4,8 C 91 % 1019,7 hPa 0,0 l/m 0,0 km/h (0 Bft) NO 45 -6,0 C -4,8 C
11.12.2019 07:53 -5,1 C 91 % 1019,7 hPa 0,0 l/m 0,0 km/h (0 Bft) NO 51 -6,3 C -5,1 C
11.12.2019 07:52 -5,2 C 91 % 1019,7 hPa 0,0 l/m 0,0 km/h (0 Bft) NO 46 -6,4 C -5,2 C
11.12.2019 07:51 -5,3 C 91 % 1019,8 hPa 0,0 l/m 0,0 km/h (0 Bft) NO 41 -6,5 C -5,3 C
11.12.2019 07:50 -5,4 C 91 % 1019,8 hPa 0,0 l/m 0,0 km/h (0 Bft) NO 49 -6,6 C -5,4 C
11.12.2019 07:49 -5,5 C 91 % 1019,8 hPa 0,0 l/m 0,0 km/h (0 Bft) NO 49 -6,7 C -5,5 C
11.12.2019 07:48 -5,6 C 91 % 1019,8 hPa 0,0 l/m 0,0 km/h (0 Bft) NO 53 -6,8 C -5,6 C
11.12.2019 07:47 -5,7 C 91 % 1019,9 hPa 0,0 l/m 0,0 km/h (0 Bft) NO 53 -6,9 C -5,7 C
11.12.2019 07:46 -5,7 C 91 % 1019,9 hPa 0,0 l/m 0,0 km/h (0 Bft) NO 53 -6,9 C -5,7 C
11.12.2019 07:45 -5,8 C 91 % 1019,9 hPa 0,0 l/m 0,0 km/h (0 Bft) NO 54 -7,0 C -5,8 C
11.12.2019 07:44 -5,9 C 91 % 1019,9 hPa 0,0 l/m 0,0 km/h (0 Bft) NO 46 -7,1 C -5,9 C
11.12.2019 07:43 -6,1 C 91 % 1019,9 hPa 0,0 l/m 0,0 km/h (0 Bft) NO 40 -7,3 C -6,1 C
11.12.2019 07:42 -6,2 C 91 % 1019,9 hPa 0,0 l/m 0,0 km/h (0 Bft) NO 40 -7,4 C -6,2 C
11.12.2019 07:41 -6,3 C 91 % 1019,9 hPa 0,0 l/m 0,0 km/h (0 Bft) N-NO 25 -7,5 C -6,3 C
11.12.2019 07:40 -6,4 C 91 % 1019,9 hPa 0,0 l/m 0,0 km/h (0 Bft) NO 53 -7,6 C -6,4 C
11.12.2019 07:39 -6,4 C 91 % 1020,0 hPa 0,0 l/m 0,0 km/h (0 Bft) NO 53 -7,6 C -6,4 C
11.12.2019 07:38 -6,5 C 91 % 1020,0 hPa 0,0 l/m 0,0 km/h (0 Bft) NO 53 -7,7 C -6,5 C
11.12.2019 07:37 -6,5 C 91 % 1020,0 hPa 0,0 l/m 0,0 km/h (0 Bft) NO 53 -7,7 C -6,5 C
11.12.2019 07:36 -6,5 C 91 % 1020,0 hPa 0,0 l/m 0,0 km/h (0 Bft) NO 53 -7,7 C -6,5 C
11.12.2019 07:35 -6,6 C 91 % 1020,1 hPa 0,0 l/m 0,0 km/h (0 Bft) NO 53 -7,8 C -6,6 C
11.12.2019 07:34 -6,6 C 91 % 1020,1 hPa 0,0 l/m 0,0 km/h (0 Bft) NO 53 -7,8 C -6,6 C
11.12.2019 07:33 -6,7 C 91 % 1020,1 hPa 0,0 l/m 0,0 km/h (0 Bft) NO 53 -7,9 C -6,7 C
11.12.2019 07:32 -6,8 C 91 % 1020,1 hPa 0,0 l/m 0,0 km/h (0 Bft) NO 53 -8,0 C -6,8 C
11.12.2019 07:30 -6,9 C 91 % 1020,1 hPa 0,0 l/m 0,0 km/h (0 Bft) NO 53 -8,1 C -6,9 C
11.12.2019 07:29 -7,1 C 91 % 1020,0 hPa 0,0 l/m 0,0 km/h (0 Bft) NO 53 -8,3 C -7,1 C
11.12.2019 07:28 -7,2 C 91 % 1020,0 hPa 0,0 l/m 0,0 km/h (0 Bft) NO 53 -8,4 C -7,2 C
11.12.2019 07:25 -7,4 C 91 % 1020,0 hPa 0,0 l/m 0,0 km/h (0 Bft) NO 53 -8,6 C -7,4 C
11.12.2019 07:24 -7,6 C 91 % 1020,0 hPa 0,0 l/m 0,0 km/h (0 Bft) NO 53 -8,8 C -7,6 C
11.12.2019 07:23 -7,7 C 91 % 1020,0 hPa 0,0 l/m 0,0 km/h (0 Bft) NO 53 -8,9 C -7,7 C
11.12.2019 07:22 -7,8 C 90 % 1020,0 hPa 0,0 l/m 0,0 km/h (0 Bft) NO 53 -9,1 C -7,8 C
11.12.2019 07:21 -7,9 C 90 % 1020,0 hPa 0,0 l/m 0,0 km/h (0 Bft) NO 53 -9,2 C -7,9 C
11.12.2019 07:20 -8,0 C 90 % 1020,0 hPa 0,0 l/m 0,0 km/h (0 Bft) NO 53 -9,3 C -8,0 C
11.12.2019 07:19 -8,1 C 90 % 1020,1 hPa 0,0 l/m 0,0 km/h (0 Bft) NO 53 -9,4 C -8,1 C
11.12.2019 07:18 -8,1 C 90 % 1020,0 hPa 0,0 l/m 0,0 km/h (0 Bft) NO 53 -9,4 C -8,1 C
11.12.2019 07:17 -8,1 C 90 % 1020,1 hPa 0,0 l/m 0,0 km/h (0 Bft) NO 53 -9,4 C -8,1 C
11.12.2019 07:16 -8,1 C 90 % 1020,1 hPa 0,0 l/m 0,0 km/h (0 Bft) NO 53 -9,4 C -8,1 C
11.12.2019 07:15 -8,1 C 90 % 1020,0 hPa 0,0 l/m 0,0 km/h (0 Bft) O-NO 58 -9,4 C -8,1 C
11.12.2019 07:14 -8,1 C 90 % 1020,2 hPa 0,0 l/m 0,0 km/h (0 Bft) S 179 -9,4 C -8,1 C
11.12.2019 07:13 -8,1 C 90 % 1020,1 hPa 0,0 l/m 0,0 km/h (0 Bft) S 179 -9,4 C -8,1 C
11.12.2019 07:12 -8,2 C 90 % 1020,2 hPa 0,0 l/m 0,0 km/h (0 Bft) S 179 -9,5 C -8,2 C
11.12.2019 07:11 -8,2 C 90 % 1020,2 hPa 0,0 l/m 0,0 km/h (0 Bft) S 179 -9,5 C -8,2 C
11.12.2019 07:10 -8,2 C 90 % 1020,2 hPa 0,0 l/m 0,0 km/h (0 Bft) S 179 -9,5 C -8,2 C
11.12.2019 07:09 -8,2 C 90 % 1020,2 hPa 0,0 l/m 0,0 km/h (0 Bft) S 179 -9,5 C -8,2 C
11.12.2019 07:08 -8,3 C 90 % 1020,2 hPa 0,0 l/m 0,0 km/h (0 Bft) S 179 -9,6 C -8,3 C
11.12.2019 07:07 -8,3 C 90 % 1020,2 hPa 0,0 l/m 0,0 km/h (0 Bft) S 179 -9,6 C -8,3 C
11.12.2019 07:06 -8,3 C 90 % 1020,3 hPa 0,0 l/m 0,0 km/h (0 Bft) S 179 -9,6 C -8,3 C
11.12.2019 07:05 -8,4 C 90 % 1020,3 hPa 0,0 l/m 0,0 km/h (0 Bft) S 179 -9,7 C -8,4 C
11.12.2019 07:04 -8,4 C 90 % 1020,3 hPa 0,0 l/m 0,0 km/h (0 Bft) S 179 -9,7 C -8,4 C
11.12.2019 07:03 -8,4 C 90 % 1020,3 hPa 0,0 l/m 0,0 km/h (0 Bft) S 179 -9,7 C -8,4 C
11.12.2019 07:02 -8,4 C 90 % 1020,4 hPa 0,0 l/m 0,0 km/h (0 Bft) S 179 -9,7 C -8,4 C
11.12.2019 07:00 -8,4 C 90 % 1020,4 hPa 0,0 l/m 0,0 km/h (0 Bft) S 179 -9,7 C -8,4 C
11.12.2019 06:59 -8,4 C 90 % 1020,4 hPa 0,0 l/m 0,0 km/h (0 Bft) S 179 -9,7 C -8,4 C
11.12.2019 06:58 -8,4 C 90 % 1020,4 hPa 0,0 l/m 0,0 km/h (0 Bft) S 179 -9,7 C -8,4 C
11.12.2019 06:57 -8,4 C 90 % 1020,4 hPa 0,0 l/m 0,0 km/h (0 Bft) S 179 -9,7 C -8,4 C
11.12.2019 06:56 -8,4 C 90 % 1020,4 hPa 0,0 l/m 0,0 km/h (0 Bft) S 179 -9,7 C -8,4 C
11.12.2019 06:55 -8,5 C 90 % 1020,4 hPa 0,0 l/m 0,0 km/h (0 Bft) S 179 -9,8 C -8,5 C
11.12.2019 06:54 -8,5 C 90 % 1020,4 hPa 0,0 l/m 0,0 km/h (0 Bft) S 179 -9,8 C -8,5 C
11.12.2019 06:53 -8,5 C 90 % 1020,5 hPa 0,0 l/m 0,0 km/h (0 Bft) S 179 -9,8 C -8,5 C
11.12.2019 06:52 -8,6 C 90 % 1020,5 hPa 0,0 l/m 0,0 km/h (0 Bft) S 179 -9,9 C -8,6 C
11.12.2019 06:51 -8,6 C 90 % 1020,5 hPa 0,0 l/m 0,0 km/h (0 Bft) S 179 -9,9 C -8,6 C
11.12.2019 06:50 -8,6 C 90 % 1020,6 hPa 0,0 l/m 0,0 km/h (0 Bft) S 179 -9,9 C -8,6 C
11.12.2019 06:49 -8,6 C 90 % 1020,5 hPa 0,0 l/m 0,0 km/h (0 Bft) S 179 -9,9 C -8,6 C
11.12.2019 06:48 -8,6 C 90 % 1020,5 hPa 0,0 l/m 0,0 km/h (0 Bft) S 179 -9,9 C -8,6 C
11.12.2019 06:47 -8,6 C 90 % 1020,5 hPa 0,0 l/m 0,0 km/h (0 Bft) S 179 -9,9 C -8,6 C
11.12.2019 06:46 -8,6 C 90 % 1020,5 hPa 0,0 l/m 0,0 km/h (0 Bft) S 179 -9,9 C -8,6 C
11.12.2019 06:45 -8,6 C 90 % 1020,5 hPa 0,0 l/m 0,0 km/h (0 Bft) S 179 -9,9 C -8,6 C
11.12.2019 06:44 -8,6 C 90 % 1020,5 hPa 0,0 l/m 0,0 km/h (0 Bft) S 179 -9,9 C -8,6 C
11.12.2019 06:43 -8,6 C 90 % 1020,6 hPa 0,0 l/m 0,0 km/h (0 Bft) S 179 -9,9 C -8,6 C
11.12.2019 06:42 -8,6 C 90 % 1020,5 hPa 0,0 l/m 0,0 km/h (0 Bft) S 179 -9,9 C -8,6 C
11.12.2019 06:41 -8,6 C 90 % 1020,5 hPa 0,0 l/m 0,0 km/h (0 Bft) S 179 -9,9 C -8,6 C
11.12.2019 06:40 -8,6 C 90 % 1020,5 hPa 0,0 l/m 0,0 km/h (0 Bft) S 179 -9,9 C -8,6 C
11.12.2019 06:39 -8,6 C 90 % 1020,5 hPa 0,0 l/m 0,0 km/h (0 Bft) S 179 -9,9 C -8,6 C
11.12.2019 06:38 -8,6 C 90 % 1020,5 hPa 0,0 l/m 0,0 km/h (0 Bft) S 179 -9,9 C -8,6 C
11.12.2019 06:37 -8,5 C 90 % 1020,5 hPa 0,0 l/m 0,0 km/h (0 Bft) S 179 -9,8 C -8,5 C
11.12.2019 06:36 -8,6 C 90 % 1020,5 hPa 0,0 l/m 0,0 km/h (0 Bft) S 179 -9,9 C -8,6 C
11.12.2019 06:35 -8,6 C 90 % 1020,5 hPa 0,0 l/m 0,0 km/h (0 Bft) S 179 -9,9 C -8,6 C
11.12.2019 06:34 -8,6 C 90 % 1020,5 hPa 0,0 l/m 0,0 km/h (0 Bft) S 179 -9,9 C -8,6 C
11.12.2019 06:33 -8,5 C 90 % 1020,5 hPa 0,0 l/m 0,0 km/h (0 Bft) S 179 -9,8 C -8,5 C
11.12.2019 06:32 -8,6 C 90 % 1020,5 hPa 0,0 l/m 0,0 km/h (0 Bft) S 179 -9,9 C -8,6 C
11.12.2019 06:30 -8,6 C 90 % 1020,5 hPa 0,0 l/m 0,0 km/h (0 Bft) S 179 -9,9 C -8,6 C
11.12.2019 06:29 -8,6 C 90 % 1020,6 hPa 0,0 l/m 0,0 km/h (0 Bft) S 179 -9,9 C -8,6 C
11.12.2019 06:28 -8,5 C 90 % 1020,6 hPa 0,0 l/m 0,0 km/h (0 Bft) S 179 -9,8 C -8,5 C
11.12.2019 06:27 -8,5 C 90 % 1020,6 hPa 0,0 l/m 0,0 km/h (0 Bft) S 179 -9,8 C -8,5 C
11.12.2019 06:26 -8,5 C 90 % 1020,6 hPa 0,0 l/m 0,0 km/h (0 Bft) S 179 -9,8 C -8,5 C
11.12.2019 06:22 -8,6 C 90 % 1020,7 hPa 0,0 l/m 0,0 km/h (0 Bft) S 179 -9,9 C -8,6 C
11.12.2019 06:21 -8,6 C 90 % 1020,7 hPa 0,0 l/m 0,0 km/h (0 Bft) S 179 -9,9 C -8,6 C
11.12.2019 06:20 -8,6 C 90 % 1020,7 hPa 0,0 l/m 0,0 km/h (0 Bft) S 179 -9,9 C -8,6 C
11.12.2019 06:19 -8,6 C 90 % 1020,7 hPa 0,0 l/m 0,0 km/h (0 Bft) S 179 -9,9 C -8,6 C
11.12.2019 06:18 -8,6 C 90 % 1020,7 hPa 0,0 l/m 0,0 km/h (0 Bft) S 179 -9,9 C -8,6 C
11.12.2019 06:17 -8,6 C 90 % 1020,7 hPa 0,0 l/m 0,0 km/h (0 Bft) S 179 -9,9 C -8,6 C
11.12.2019 06:16 -8,6 C 90 % 1020,7 hPa 0,0 l/m 0,0 km/h (0 Bft) S 179 -9,9 C -8,6 C
11.12.2019 06:14 -8,6 C 90 % 1020,7 hPa 0,0 l/m 0,0 km/h (0 Bft) S 179 -9,9 C -8,6 C
11.12.2019 06:13 -8,6 C 90 % 1020,6 hPa 0,0 l/m 0,0 km/h (0 Bft) S 179 -9,9 C -8,6 C
11.12.2019 06:12 -8,6 C 90 % 1020,5 hPa 0,0 l/m 0,0 km/h (0 Bft) S 179 -9,9 C -8,6 C
11.12.2019 06:11 -8,6 C 90 % 1020,6 hPa 0,0 l/m 0,0 km/h (0 Bft) S 179 -9,9 C -8,6 C
11.12.2019 06:10 -8,6 C 90 % 1020,6 hPa 0,0 l/m 0,0 km/h (0 Bft) S 179 -9,9 C -8,6 C
11.12.2019 06:09 -8,6 C 90 % 1020,6 hPa 0,0 l/m 0,0 km/h (0 Bft) S 179 -9,9 C -8,6 C
11.12.2019 06:08 -8,6 C 90 % 1020,6 hPa 0,0 l/m 0,0 km/h (0 Bft) S 179 -9,9 C -8,6 C
11.12.2019 06:07 -8,6 C 90 % 1020,6 hPa 0,0 l/m 0,0 km/h (0 Bft) S 179 -9,9 C -8,6 C
11.12.2019 06:06 -8,6 C 90 % 1020,6 hPa 0,0 l/m 0,0 km/h (0 Bft) S 179 -9,9 C -8,6 C
11.12.2019 06:05 -8,6 C 90 % 1020,6 hPa 0,0 l/m 0,0 km/h (0 Bft) S 179 -9,9 C -8,6 C
11.12.2019 06:04 -8,6 C 90 % 1020,7 hPa 0,0 l/m 0,0 km/h (0 Bft) S 179 -9,9 C -8,6 C
11.12.2019 06:03 -8,5 C 90 % 1020,6 hPa 0,0 l/m 0,0 km/h (0 Bft) S 179 -9,8 C -8,5 C
11.12.2019 06:02 -8,5 C 90 % 1020,6 hPa 0,0 l/m 0,0 km/h (0 Bft) S 179 -9,8 C -8,5 C
11.12.2019 06:01 -8,5 C 90 % 1020,6 hPa 0,0 l/m 0,0 km/h (0 Bft) S 179 -9,8 C -8,5 C
11.12.2019 06:00 -8,4 C 90 % 1020,6 hPa 0,0 l/m 0,0 km/h (0 Bft) S 179 -9,7 C -8,4 C
11.12.2019 05:59 -8,4 C 90 % 1020,6 hPa 0,0 l/m 0,0 km/h (0 Bft) S 179 -9,7 C -8,4 C
11.12.2019 05:58 -8,4 C 90 % 1020,7 hPa 0,0 l/m 0,0 km/h (0 Bft) S 179 -9,7 C -8,4 C
11.12.2019 05:57 -8,4 C 90 % 1020,7 hPa 0,0 l/m 0,0 km/h (0 Bft) S 179 -9,7 C -8,4 C
11.12.2019 05:56 -8,4 C 90 % 1020,7 hPa 0,0 l/m 0,0 km/h (0 Bft) S 179 -9,7 C -8,4 C
11.12.2019 05:55 -8,4 C 90 % 1020,7 hPa 0,0 l/m 0,0 km/h (0 Bft) S 179 -9,7 C -8,4 C
11.12.2019 05:54 -8,4 C 90 % 1020,6 hPa 0,0 l/m 0,0 km/h (0 Bft) S 179 -9,7 C -8,4 C
11.12.2019 05:53 -8,3 C 90 % 1020,7 hPa 0,0 l/m 0,0 km/h (0 Bft) S 179 -9,6 C -8,3 C
11.12.2019 05:52 -8,3 C 90 % 1020,7 hPa 0,0 l/m 0,0 km/h (0 Bft) S 179 -9,6 C -8,3 C
11.12.2019 05:51 -8,4 C 90 % 1020,7 hPa 0,0 l/m 0,0 km/h (0 Bft) S 179 -9,7 C -8,4 C
11.12.2019 05:50 -8,4 C 90 % 1020,7 hPa 0,0 l/m 0,0 km/h (0 Bft) S 179 -9,7 C -8,4 C
11.12.2019 05:49 -8,4 C 90 % 1020,6 hPa 0,0 l/m 0,0 km/h (0 Bft) S 179 -9,7 C -8,4 C
11.12.2019 05:48 -8,4 C 90 % 1020,7 hPa 0,0 l/m 0,0 km/h (0 Bft) S 179 -9,7 C -8,4 C
11.12.2019 05:47 -8,4 C 90 % 1020,7 hPa 0,0 l/m 0,0 km/h (0 Bft) S 179 -9,7 C -8,4 C
11.12.2019 05:46 -8,4 C 90 % 1020,6 hPa 0,0 l/m 0,0 km/h (0 Bft) S 179 -9,7 C -8,4 C
11.12.2019 05:45 -8,4 C 90 % 1020,7 hPa 0,0 l/m 0,0 km/h (0 Bft) S 179 -9,7 C -8,4 C
11.12.2019 05:44 -8,4 C 90 % 1020,7 hPa 0,0 l/m 0,0 km/h (0 Bft) S 179 -9,7 C -8,4 C
11.12.2019 05:43 -8,4 C 90 % 1020,7 hPa 0,0 l/m 0,0 km/h (0 Bft) S 179 -9,7 C -8,4 C
11.12.2019 05:42 -8,4 C 90 % 1020,8 hPa 0,0 l/m 0,0 km/h (0 Bft) S 179 -9,7 C -8,4 C
11.12.2019 05:41 -8,5 C 90 % 1020,8 hPa 0,0 l/m 0,0 km/h (0 Bft) S 179 -9,8 C -8,5 C
11.12.2019 05:40 -8,4 C 90 % 1020,8 hPa 0,0 l/m 0,0 km/h (0 Bft) S 179 -9,7 C -8,4 C
11.12.2019 05:39 -8,5 C 90 % 1020,8 hPa 0,0 l/m 0,0 km/h (0 Bft) S 179 -9,8 C -8,5 C
11.12.2019 05:38 -8,5 C 89 % 1020,9 hPa 0,0 l/m 0,0 km/h (0 Bft) S 179 -10,0 C -8,5 C
11.12.2019 05:37 -8,5 C 89 % 1020,9 hPa 0,0 l/m 0,0 km/h (0 Bft) S 179 -10,0 C -8,5 C
11.12.2019 05:36 -8,5 C 89 % 1020,9 hPa 0,0 l/m 0,0 km/h (0 Bft) S 179 -10,0 C -8,5 C
11.12.2019 05:35 -8,5 C 89 % 1020,9 hPa 0,0 l/m 0,0 km/h (0 Bft) S 179 -10,0 C -8,5 C
11.12.2019 05:34 -8,5 C 89 % 1020,9 hPa 0,0 l/m 0,0 km/h (0 Bft) S 179 -10,0 C -8,5 C
11.12.2019 05:33 -8,4 C 90 % 1020,9 hPa 0,0 l/m 0,0 km/h (0 Bft) S 179 -9,7 C -8,4 C
11.12.2019 05:32 -8,4 C 90 % 1021,0 hPa 0,0 l/m 0,0 km/h (0 Bft) S 179 -9,7 C -8,4 C
11.12.2019 05:30 -8,4 C 90 % 1021,0 hPa 0,0 l/m 0,0 km/h (0 Bft) S 179 -9,7 C -8,4 C
11.12.2019 05:29 -8,4 C 90 % 1021,1 hPa 0,0 l/m 0,0 km/h (0 Bft) S 179 -9,7 C -8,4 C
11.12.2019 05:28 -8,3 C 90 % 1021,1 hPa 0,0 l/m 0,0 km/h (0 Bft) S 179 -9,6 C -8,3 C
11.12.2019 05:27 -8,3 C 90 % 1021,1 hPa 0,0 l/m 0,0 km/h (0 Bft) S 179 -9,6 C -8,3 C
11.12.2019 05:26 -8,3 C 90 % 1021,1 hPa 0,0 l/m 0,0 km/h (0 Bft) S 179 -9,6 C -8,3 C
11.12.2019 05:25 -8,2 C 90 % 1021,1 hPa 0,0 l/m 0,0 km/h (0 Bft) S 179 -9,5 C -8,2 C
11.12.2019 05:24 -8,2 C 90 % 1021,1 hPa 0,0 l/m 0,0 km/h (0 Bft) S 179 -9,5 C -8,2 C
11.12.2019 05:21 -8,2 C 90 % 1021,2 hPa 0,0 l/m 0,0 km/h (0 Bft) S 179 -9,5 C -8,2 C
11.12.2019 05:20 -8,2 C 90 % 1021,2 hPa 0,0 l/m 0,0 km/h (0 Bft) S 179 -9,5 C -8,2 C
11.12.2019 05:19 -8,2 C 90 % 1021,2 hPa 0,0 l/m 0,0 km/h (0 Bft) S 179 -9,5 C -8,2 C
11.12.2019 05:18 -8,2 C 90 % 1021,2 hPa 0,0 l/m 0,0 km/h (0 Bft) S 179 -9,5 C -8,2 C
11.12.2019 05:17 -8,2 C 90 % 1021,3 hPa 0,0 l/m 0,0 km/h (0 Bft) S 179 -9,5 C -8,2 C
11.12.2019 05:16 -8,2 C 90 % 1021,2 hPa 0,0 l/m 0,0 km/h (0 Bft) S 179 -9,5 C -8,2 C
11.12.2019 05:15 -8,2 C 90 % 1021,3 hPa 0,0 l/m 0,0 km/h (0 Bft) S 179 -9,5 C -8,2 C
11.12.2019 05:14 -8,2 C 90 % 1021,3 hPa 0,0 l/m 0,0 km/h (0 Bft) S 179 -9,5 C -8,2 C
11.12.2019 05:12 -8,2 C 90 % 1021,3 hPa 0,0 l/m 0,0 km/h (0 Bft) S 179 -9,5 C -8,2 C
11.12.2019 05:11 -8,2 C 90 % 1021,3 hPa 0,0 l/m 0,0 km/h (0 Bft) S 179 -9,5 C -8,2 C
11.12.2019 05:10 -8,2 C 90 % 1021,3 hPa 0,0 l/m 0,0 km/h (0 Bft) S 179 -9,5 C -8,2 C
11.12.2019 05:09 -8,2 C 90 % 1021,4 hPa 0,0 l/m 0,0 km/h (0 Bft) S 179 -9,5 C -8,2 C
11.12.2019 05:08 -8,2 C 90 % 1021,4 hPa 0,0 l/m 0,0 km/h (0 Bft) S 179 -9,5 C -8,2 C
11.12.2019 05:07 -8,2 C 90 % 1021,4 hPa 0,0 l/m 0,0 km/h (0 Bft) S 179 -9,5 C -8,2 C
11.12.2019 05:06 -8,2 C 90 % 1021,3 hPa 0,0 l/m 0,0 km/h (0 Bft) S 179 -9,5 C -8,2 C
11.12.2019 05:05 -8,2 C 90 % 1021,3 hPa 0,0 l/m 0,0 km/h (0 Bft) S 179 -9,5 C -8,2 C
11.12.2019 05:04 -8,2 C 90 % 1021,3 hPa 0,0 l/m 0,0 km/h (0 Bft) S 179 -9,5 C -8,2 C
11.12.2019 05:03 -8,2 C 90 % 1021,3 hPa 0,0 l/m 0,0 km/h (0 Bft) S 179 -9,5 C -8,2 C
11.12.2019 05:02 -8,2 C 90 % 1021,3 hPa 0,0 l/m 0,0 km/h (0 Bft) S 179 -9,5 C -8,2 C
11.12.2019 05:01 -8,2 C 90 % 1021,3 hPa 0,0 l/m 0,0 km/h (0 Bft) S 179 -9,5 C -8,2 C
11.12.2019 05:00 -8,2 C 90 % 1021,3 hPa 0,0 l/m 0,0 km/h (0 Bft) S 179 -9,5 C -8,2 C
11.12.2019 04:59 -8,2 C 90 % 1021,3 hPa 0,0 l/m 0,0 km/h (0 Bft) S 179 -9,5 C -8,2 C
11.12.2019 04:58 -8,2 C 90 % 1021,3 hPa 0,0 l/m 0,0 km/h (0 Bft) S 179 -9,5 C -8,2 C
11.12.2019 04:57 -8,2 C 90 % 1021,4 hPa 0,0 l/m 0,0 km/h (0 Bft) S 179 -9,5 C -8,2 C
11.12.2019 04:56 -8,2 C 90 % 1021,4 hPa 0,0 l/m 0,0 km/h (0 Bft) S 179 -9,5 C -8,2 C
11.12.2019 04:55 -8,2 C 90 % 1021,4 hPa 0,0 l/m 0,0 km/h (0 Bft) S 179 -9,5 C -8,2 C
11.12.2019 04:54 -8,2 C 90 % 1021,4 hPa 0,0 l/m 0,0 km/h (0 Bft) S 179 -9,5 C -8,2 C
11.12.2019 04:53 -8,2 C 90 % 1021,4 hPa 0,0 l/m 0,0 km/h (0 Bft) S 179 -9,5 C -8,2 C
11.12.2019 04:52 -8,2 C 90 % 1021,4 hPa 0,0 l/m 0,0 km/h (0 Bft) S 179 -9,5 C -8,2 C
11.12.2019 04:51 -8,2 C 90 % 1021,4 hPa 0,0 l/m 0,0 km/h (0 Bft) S 179 -9,5 C -8,2 C
11.12.2019 04:50 -8,2 C 90 % 1021,4 hPa 0,0 l/m 0,0 km/h (0 Bft) S 179 -9,5 C -8,2 C
11.12.2019 04:49 -8,2 C 90 % 1021,5 hPa 0,0 l/m 0,0 km/h (0 Bft) S 179 -9,5 C -8,2 C
11.12.2019 04:48 -8,2 C 90 % 1021,5 hPa 0,0 l/m 0,0 km/h (0 Bft) S 179 -9,5 C -8,2 C
11.12.2019 04:47 -8,2 C 90 % 1021,4 hPa 0,0 l/m 0,0 km/h (0 Bft) S 179 -9,5 C -8,2 C
11.12.2019 04:46 -8,2 C 90 % 1021,4 hPa 0,0 l/m 0,0 km/h (0 Bft) S 179 -9,5 C -8,2 C
11.12.2019 04:45 -8,2 C 90 % 1021,4 hPa 0,0 l/m 0,0 km/h (0 Bft) S 179 -9,5 C -8,2 C
11.12.2019 04:44 -8,2 C 90 % 1021,5 hPa 0,0 l/m 0,0 km/h (0 Bft) S 179 -9,5 C -8,2 C
11.12.2019 04:43 -8,2 C 90 % 1021,5 hPa 0,0 l/m 0,0 km/h (0 Bft) S 179 -9,5 C -8,2 C
11.12.2019 04:42 -8,2 C 90 % 1021,5 hPa 0,0 l/m 0,0 km/h (0 Bft) S 179 -9,5 C -8,2 C
11.12.2019 04:41 -8,2 C 90 % 1021,6 hPa 0,0 l/m 0,0 km/h (0 Bft) S 179 -9,5 C -8,2 C
11.12.2019 04:40 -8,2 C 90 % 1021,6 hPa 0,0 l/m 0,0 km/h (0 Bft) S 179 -9,5 C -8,2 C
11.12.2019 04:39 -8,2 C 90 % 1021,6 hPa 0,0 l/m 0,0 km/h (0 Bft) S 179 -9,5 C -8,2 C
11.12.2019 04:38 -8,2 C 90 % 1021,7 hPa 0,0 l/m 0,0 km/h (0 Bft) S 179 -9,5 C -8,2 C
11.12.2019 04:37 -8,2 C 90 % 1021,7 hPa 0,0 l/m 0,0 km/h (0 Bft) S 179 -9,5 C -8,2 C
11.12.2019 04:36 -8,2 C 90 % 1021,7 hPa 0,0 l/m 0,0 km/h (0 Bft) S 179 -9,5 C -8,2 C
11.12.2019 04:35 -8,2 C 90 % 1021,6 hPa 0,0 l/m 0,0 km/h (0 Bft) S 179 -9,5 C -8,2 C
11.12.2019 04:34 -8,2 C 90 % 1021,7 hPa 0,0 l/m 0,0 km/h (0 Bft) S 179 -9,5 C -8,2 C
11.12.2019 04:33 -8,2 C 90 % 1021,7 hPa 0,0 l/m 0,0 km/h (0 Bft) S 179 -9,5 C -8,2 C
11.12.2019 04:32 -8,2 C 90 % 1021,7 hPa 0,0 l/m 0,0 km/h (0 Bft) S 179 -9,5 C -8,2 C
11.12.2019 04:31 -8,2 C 90 % 1021,7 hPa 0,0 l/m 0,0 km/h (0 Bft) S 179 -9,5 C -8,2 C
11.12.2019 04:30 -8,2 C 90 % 1021,8 hPa 0,0 l/m 0,0 km/h (0 Bft) S 179 -9,5 C -8,2 C
11.12.2019 04:29 -8,2 C 89 % 1021,8 hPa 0,0 l/m 0,0 km/h (0 Bft) S 179 -9,7 C -8,2 C
11.12.2019 04:28 -8,2 C 89 % 1021,8 hPa 0,0 l/m 0,0 km/h (0 Bft) S 179 -9,7 C -8,2 C
11.12.2019 04:27 -8,2 C 89 % 1021,8 hPa 0,0 l/m 0,0 km/h (0 Bft) S 179 -9,7 C -8,2 C
11.12.2019 04:26 -8,2 C 90 % 1021,7 hPa 0,0 l/m 0,0 km/h (0 Bft) S 179 -9,5 C -8,2 C
11.12.2019 04:25 -8,2 C 90 % 1021,7 hPa 0,0 l/m 0,0 km/h (0 Bft) S 179 -9,5 C -8,2 C
11.12.2019 04:24 -8,2 C 90 % 1021,8 hPa 0,0 l/m 0,0 km/h (0 Bft) S 179 -9,5 C -8,2 C
11.12.2019 04:23 -8,1 C 90 % 1021,9 hPa 0,0 l/m 0,0 km/h (0 Bft) S 179 -9,4 C -8,1 C
11.12.2019 04:22 -8,1 C 90 % 1021,9 hPa 0,0 l/m 0,0 km/h (0 Bft) S 179 -9,4 C -8,1 C
11.12.2019 04:18 -7,9 C 90 % 1022,0 hPa 0,0 l/m 0,0 km/h (0 Bft) S 179 -9,2 C -7,9 C
11.12.2019 04:17 -7,9 C 90 % 1022,0 hPa 0,0 l/m 0,0 km/h (0 Bft) S 179 -9,2 C -7,9 C
11.12.2019 04:16 -7,9 C 90 % 1022,0 hPa 0,0 l/m 0,0 km/h (0 Bft) S 179 -9,2 C -7,9 C
11.12.2019 04:15 -7,9 C 90 % 1022,0 hPa 0,0 l/m 0,0 km/h (0 Bft) S 179 -9,2 C -7,9 C
11.12.2019 04:14 -7,9 C 90 % 1022,0 hPa 0,0 l/m 0,0 km/h (0 Bft) S 179 -9,2 C -7,9 C
11.12.2019 04:13 -7,9 C 90 % 1022,1 hPa 0,0 l/m 0,0 km/h (0 Bft) S 179 -9,2 C -7,9 C
11.12.2019 04:12 -7,8 C 90 % 1022,1 hPa 0,0 l/m 0,0 km/h (0 Bft) S 179 -9,1 C -7,8 C
11.12.2019 04:11 -7,9 C 90 % 1022,1 hPa 0,0 l/m 0,0 km/h (0 Bft) S 179 -9,2 C -7,9 C
11.12.2019 04:10 -7,9 C 90 % 1022,1 hPa 0,0 l/m 0,0 km/h (0 Bft) S 179 -9,2 C -7,9 C
11.12.2019 04:09 -7,8 C 90 % 1022,1 hPa 0,0 l/m 0,0 km/h (0 Bft) S 179 -9,1 C -7,8 C
11.12.2019 04:08 -7,8 C 90 % 1022,1 hPa 0,0 l/m 0,0 km/h (0 Bft) S 179 -9,1 C -7,8 C
11.12.2019 04:07 -7,8 C 90 % 1022,1 hPa 0,0 l/m 0,0 km/h (0 Bft) S 179 -9,1 C -7,8 C
11.12.2019 04:06 -7,8 C 90 % 1022,2 hPa 0,0 l/m 0,0 km/h (0 Bft) S 179 -9,1 C -7,8 C
11.12.2019 04:05 -7,8 C 90 % 1022,3 hPa 0,0 l/m 0,0 km/h (0 Bft) S 179 -9,1 C -7,8 C
11.12.2019 04:04 -7,8 C 90 % 1022,3 hPa 0,0 l/m 0,0 km/h (0 Bft) S 179 -9,1 C -7,8 C
11.12.2019 04:03 -7,8 C 90 % 1022,3 hPa 0,0 l/m 0,0 km/h (0 Bft) S 179 -9,1 C -7,8 C
11.12.2019 04:02 -7,8 C 90 % 1022,3 hPa 0,0 l/m 0,0 km/h (0 Bft) S 179 -9,1 C -7,8 C
11.12.2019 04:01 -7,8 C 90 % 1022,3 hPa 0,0 l/m 0,0 km/h (0 Bft) S 179 -9,1 C -7,8 C
11.12.2019 04:00 -7,8 C 90 % 1022,3 hPa 0,0 l/m 0,0 km/h (0 Bft) S 179 -9,1 C -7,8 C
11.12.2019 03:59 -7,8 C 90 % 1022,4 hPa 0,0 l/m 0,0 km/h (0 Bft) S 179 -9,1 C -7,8 C
11.12.2019 03:58 -7,8 C 90 % 1022,4 hPa 0,0 l/m 0,0 km/h (0 Bft) S 179 -9,1 C -7,8 C
11.12.2019 03:57 -7,8 C 90 % 1022,4 hPa 0,0 l/m 0,0 km/h (0 Bft) S 179 -9,1 C -7,8 C
11.12.2019 03:56 -7,8 C 90 % 1022,3 hPa 0,0 l/m 0,0 km/h (0 Bft) S 179 -9,1 C -7,8 C
11.12.2019 03:55 -7,8 C 90 % 1022,4 hPa 0,0 l/m 0,0 km/h (0 Bft) S 179 -9,1 C -7,8 C
11.12.2019 03:54 -7,8 C 90 % 1022,4 hPa 0,0 l/m 0,0 km/h (0 Bft) S 179 -9,1 C -7,8 C
11.12.2019 03:53 -7,8 C 90 % 1022,4 hPa 0,0 l/m 0,0 km/h (0 Bft) S 179 -9,1 C -7,8 C
11.12.2019 03:52 -7,8 C 90 % 1022,5 hPa 0,0 l/m 0,0 km/h (0 Bft) S 179 -9,1 C -7,8 C
11.12.2019 03:51 -7,8 C 90 % 1022,4 hPa 0,0 l/m 0,0 km/h (0 Bft) S 179 -9,1 C -7,8 C
11.12.2019 03:50 -7,9 C 90 % 1022,5 hPa 0,0 l/m 0,0 km/h (0 Bft) S 179 -9,2 C -7,9 C
11.12.2019 03:49 -7,9 C 90 % 1022,5 hPa 0,0 l/m 0,0 km/h (0 Bft) S 179 -9,2 C -7,9 C
11.12.2019 03:48 -7,9 C 90 % 1022,5 hPa 0,0 l/m 0,0 km/h (0 Bft) S 179 -9,2 C -7,9 C
11.12.2019 03:47 -7,9 C 90 % 1022,6 hPa 0,0 l/m 0,0 km/h (0 Bft) S 179 -9,2 C -7,9 C
11.12.2019 03:46 -7,9 C 90 % 1022,6 hPa 0,0 l/m 0,0 km/h (0 Bft) S 179 -9,2 C -7,9 C
11.12.2019 03:45 -7,9 C 90 % 1022,6 hPa 0,0 l/m 0,0 km/h (0 Bft) S 179 -9,2 C -7,9 C
11.12.2019 03:44 -7,9 C 90 % 1022,6 hPa 0,0 l/m 0,0 km/h (0 Bft) S 179 -9,2 C -7,9 C
11.12.2019 03:43 -7,9 C 89 % 1022,6 hPa 0,0 l/m 0,0 km/h (0 Bft) S 179 -9,4 C -7,9 C
11.12.2019 03:42 -7,9 C 89 % 1022,6 hPa 0,0 l/m 0,0 km/h (0 Bft) S 179 -9,4 C -7,9 C
11.12.2019 03:41 -7,9 C 89 % 1022,6 hPa 0,0 l/m 0,0 km/h (0 Bft) S 179 -9,4 C -7,9 C
11.12.2019 03:40 -7,9 C 89 % 1022,7 hPa 0,0 l/m 0,0 km/h (0 Bft) S 179 -9,4 C -7,9 C
11.12.2019 03:39 -7,9 C 89 % 1022,7 hPa 0,0 l/m 0,0 km/h (0 Bft) S 179 -9,4 C -7,9 C
11.12.2019 03:38 -7,9 C 89 % 1022,7 hPa 0,0 l/m 0,0 km/h (0 Bft) S 179 -9,4 C -7,9 C
11.12.2019 03:37 -7,8 C 89 % 1022,7 hPa 0,0 l/m 0,0 km/h (0 Bft) S 179 -9,3 C -7,8 C
11.12.2019 03:36 -7,8 C 89 % 1022,7 hPa 0,0 l/m 0,0 km/h (0 Bft) S 179 -9,3 C -7,8 C
11.12.2019 03:35 -7,8 C 90 % 1022,7 hPa 0,0 l/m 0,0 km/h (0 Bft) S 179 -9,1 C -7,8 C
11.12.2019 03:34 -7,8 C 90 % 1022,7 hPa 0,0 l/m 0,0 km/h (0 Bft) S 179 -9,1 C -7,8 C
11.12.2019 03:33 -7,8 C 90 % 1022,7 hPa 0,0 l/m 0,0 km/h (0 Bft) S 179 -9,1 C -7,8 C
11.12.2019 03:32 -7,8 C 90 % 1022,7 hPa 0,0 l/m 0,0 km/h (0 Bft) S 179 -9,1 C -7,8 C
11.12.2019 03:31 -7,8 C 90 % 1022,7 hPa 0,0 l/m 0,0 km/h (0 Bft) S 179 -9,1 C -7,8 C
11.12.2019 03:30 -7,7 C 90 % 1022,6 hPa 0,0 l/m 0,0 km/h (0 Bft) S 179 -9,0 C -7,7 C
11.12.2019 03:29 -7,7 C 90 % 1022,7 hPa 0,0 l/m 0,0 km/h (0 Bft) S 179 -9,0 C -7,7 C
11.12.2019 03:28 -7,8 C 90 % 1022,7 hPa 0,0 l/m 0,0 km/h (0 Bft) S 179 -9,1 C -7,8 C
11.12.2019 03:26 -7,7 C 90 % 1022,8 hPa 0,0 l/m 0,0 km/h (0 Bft) S 179 -9,0 C -7,7 C
11.12.2019 03:25 -7,7 C 90 % 1022,8 hPa 0,0 l/m 0,0 km/h (0 Bft) S 179 -9,0 C -7,7 C
11.12.2019 03:24 -7,7 C 90 % 1022,8 hPa 0,0 l/m 0,0 km/h (0 Bft) S 179 -9,0 C -7,7 C
11.12.2019 03:23 -7,7 C 90 % 1022,7 hPa 0,0 l/m 0,0 km/h (0 Bft) S 179 -9,0 C -7,7 C
11.12.2019 03:22 -7,7 C 90 % 1022,8 hPa 0,0 l/m 0,0 km/h (0 Bft) S 179 -9,0 C -7,7 C
11.12.2019 03:21 -7,7 C 90 % 1022,8 hPa 0,0 l/m 0,0 km/h (0 Bft) S 179 -9,0 C -7,7 C
11.12.2019 03:20 -7,7 C 90 % 1022,9 hPa 0,0 l/m 0,0 km/h (0 Bft) S 179 -9,0 C -7,7 C
11.12.2019 03:19 -7,7 C 90 % 1022,9 hPa 0,0 l/m 0,0 km/h (0 Bft) S 179 -9,0 C -7,7 C
11.12.2019 03:18 -7,7 C 90 % 1022,9 hPa 0,0 l/m 0,0 km/h (0 Bft) S 179 -9,0 C -7,7 C
11.12.2019 03:15 -7,7 C 90 % 1022,9 hPa 0,0 l/m 0,0 km/h (0 Bft) S 179 -9,0 C -7,7 C
11.12.2019 03:14 -7,7 C 90 % 1022,9 hPa 0,0 l/m 0,0 km/h (0 Bft) S 179 -9,0 C -7,7 C
11.12.2019 03:13 -7,7 C 90 % 1023,0 hPa 0,0 l/m 0,0 km/h (0 Bft) S 179 -9,0 C -7,7 C
11.12.2019 03:12 -7,7 C 90 % 1022,9 hPa 0,0 l/m 0,0 km/h (0 Bft) S 179 -9,0 C -7,7 C
11.12.2019 03:10 -7,7 C 89 % 1023,0 hPa 0,0 l/m 0,0 km/h (0 Bft) S 179 -9,2 C -7,7 C
11.12.2019 03:09 -7,7 C 89 % 1022,9 hPa 0,0 l/m 0,0 km/h (0 Bft) S 179 -9,2 C -7,7 C
11.12.2019 03:08 -7,6 C 89 % 1023,0 hPa 0,0 l/m 0,0 km/h (0 Bft) S 179 -9,1 C -7,6 C
11.12.2019 03:07 -7,6 C 89 % 1023,0 hPa 0,0 l/m 0,0 km/h (0 Bft) S 179 -9,1 C -7,6 C
11.12.2019 03:06 -7,6 C 90 % 1023,0 hPa 0,0 l/m 0,0 km/h (0 Bft) S 179 -8,9 C -7,6 C
11.12.2019 03:05 -7,5 C 90 % 1023,0 hPa 0,0 l/m 0,0 km/h (0 Bft) S 179 -8,8 C -7,5 C
11.12.2019 03:04 -7,5 C 90 % 1023,0 hPa 0,0 l/m 0,0 km/h (0 Bft) S 179 -8,8 C -7,5 C
11.12.2019 03:03 -7,5 C 90 % 1023,0 hPa 0,0 l/m 0,0 km/h (0 Bft) S 179 -8,8 C -7,5 C
11.12.2019 03:02 -7,5 C 90 % 1023,0 hPa 0,0 l/m 0,0 km/h (0 Bft) S 179 -8,8 C -7,5 C
11.12.2019 03:01 -7,5 C 90 % 1023,0 hPa 0,0 l/m 0,0 km/h (0 Bft) S 179 -8,8 C -7,5 C
11.12.2019 03:00 -7,5 C 90 % 1023,0 hPa 0,0 l/m 0,0 km/h (0 Bft) S 179 -8,8 C -7,5 C
11.12.2019 02:59 -7,5 C 89 % 1023,0 hPa 0,0 l/m 0,0 km/h (0 Bft) S 179 -9,0 C -7,5 C
11.12.2019 02:58 -7,5 C 89 % 1023,1 hPa 0,0 l/m 0,0 km/h (0 Bft) S 179 -9,0 C -7,5 C
11.12.2019 02:57 -7,5 C 89 % 1023,1 hPa 0,0 l/m 0,0 km/h (0 Bft) S 179 -9,0 C -7,5 C
11.12.2019 02:56 -7,5 C 89 % 1023,1 hPa 0,0 l/m 0,0 km/h (0 Bft) S 179 -9,0 C -7,5 C
11.12.2019 02:55 -7,5 C 89 % 1023,1 hPa 0,0 l/m 0,0 km/h (0 Bft) S 179 -9,0 C -7,5 C
11.12.2019 02:54 -7,5 C 89 % 1023,2 hPa 0,0 l/m 0,0 km/h (0 Bft) S 179 -9,0 C -7,5 C
11.12.2019 02:53 -7,4 C 90 % 1023,2 hPa 0,0 l/m 0,0 km/h (0 Bft) S 179 -8,8 C -7,4 C
11.12.2019 02:52 -7,4 C 90 % 1023,2 hPa 0,0 l/m 0,0 km/h (0 Bft) S 179 -8,8 C -7,4 C
11.12.2019 02:51 -7,4 C 90 % 1023,3 hPa 0,0 l/m 0,0 km/h (0 Bft) S 179 -8,8 C -7,4 C
11.12.2019 02:50 -7,4 C 89 % 1023,3 hPa 0,0 l/m 0,0 km/h (0 Bft) S 179 -8,9 C -7,4 C
11.12.2019 02:49 -7,4 C 89 % 1023,3 hPa 0,0 l/m 0,0 km/h (0 Bft) S 179 -8,9 C -7,4 C
11.12.2019 02:48 -7,4 C 89 % 1023,3 hPa 0,0 l/m 0,0 km/h (0 Bft) S 179 -8,9 C -7,4 C
11.12.2019 02:47 -7,4 C 89 % 1023,3 hPa 0,0 l/m 0,0 km/h (0 Bft) S 179 -8,9 C -7,4 C
11.12.2019 02:46 -7,3 C 89 % 1023,3 hPa 0,0 l/m 0,0 km/h (0 Bft) S 179 -8,8 C -7,3 C
11.12.2019 02:45 -7,3 C 89 % 1023,3 hPa 0,0 l/m 0,0 km/h (0 Bft) S 179 -8,8 C -7,3 C
11.12.2019 02:44 -7,3 C 90 % 1023,3 hPa 0,0 l/m 0,0 km/h (0 Bft) S 179 -8,7 C -7,3 C
11.12.2019 02:43 -7,3 C 90 % 1023,4 hPa 0,0 l/m 0,0 km/h (0 Bft) S 179 -8,7 C -7,3 C
11.12.2019 02:42 -7,3 C 90 % 1023,4 hPa 0,0 l/m 0,0 km/h (0 Bft) S 179 -8,7 C -7,3 C
11.12.2019 02:41 -7,2 C 90 % 1023,4 hPa 0,0 l/m 0,0 km/h (0 Bft) S 179 -8,6 C -7,2 C
11.12.2019 02:40 -7,2 C 90 % 1023,4 hPa 0,0 l/m 0,0 km/h (0 Bft) S 179 -8,6 C -7,2 C
11.12.2019 02:39 -7,2 C 90 % 1023,3 hPa 0,0 l/m 0,0 km/h (0 Bft) S 179 -8,6 C -7,2 C
11.12.2019 02:38 -7,2 C 90 % 1023,3 hPa 0,0 l/m 0,0 km/h (0 Bft) S 179 -8,6 C -7,2 C
11.12.2019 02:37 -7,2 C 90 % 1023,2 hPa 0,0 l/m 0,0 km/h (0 Bft) S 179 -8,6 C -7,2 C
11.12.2019 02:36 -7,2 C 90 % 1023,4 hPa 0,0 l/m 0,0 km/h (0 Bft) S 179 -8,6 C -7,2 C
11.12.2019 02:35 -7,2 C 90 % 1023,4 hPa 0,0 l/m 0,0 km/h (0 Bft) S 179 -8,6 C -7,2 C
11.12.2019 02:34 -7,2 C 90 % 1023,5 hPa 0,0 l/m 0,0 km/h (0 Bft) S 179 -8,6 C -7,2 C
11.12.2019 02:33 -7,2 C 90 % 1023,5 hPa 0,0 l/m 0,0 km/h (0 Bft) S 179 -8,6 C -7,2 C
11.12.2019 02:32 -7,2 C 90 % 1023,6 hPa 0,0 l/m 0,0 km/h (0 Bft) S 179 -8,6 C -7,2 C
11.12.2019 02:31 -7,2 C 90 % 1023,5 hPa 0,0 l/m 0,0 km/h (0 Bft) S 179 -8,6 C -7,2 C
11.12.2019 02:30 -7,2 C 90 % 1023,5 hPa 0,0 l/m 0,0 km/h (0 Bft) S 179 -8,6 C -7,2 C
11.12.2019 02:29 -7,2 C 90 % 1023,4 hPa 0,0 l/m 0,0 km/h (0 Bft) S 179 -8,6 C -7,2 C
11.12.2019 02:28 -7,2 C 90 % 1023,5 hPa 0,0 l/m 0,0 km/h (0 Bft) S 179 -8,6 C -7,2 C
11.12.2019 02:27 -7,2 C 89 % 1023,5 hPa 0,0 l/m 0,0 km/h (0 Bft) S 179 -8,7 C -7,2 C
11.12.2019 02:26 -7,2 C 90 % 1023,5 hPa 0,0 l/m 0,0 km/h (0 Bft) S 179 -8,6 C -7,2 C
11.12.2019 02:25 -7,2 C 90 % 1023,5 hPa 0,0 l/m 0,0 km/h (0 Bft) S 179 -8,6 C -7,2 C
11.12.2019 02:24 -7,2 C 89 % 1023,5 hPa 0,0 l/m 0,0 km/h (0 Bft) S 179 -8,7 C -7,2 C
11.12.2019 02:23 -7,2 C 89 % 1023,6 hPa 0,0 l/m 0,0 km/h (0 Bft) S 179 -8,7 C -7,2 C
11.12.2019 02:22 -7,2 C 90 % 1023,6 hPa 0,0 l/m 0,0 km/h (0 Bft) S 179 -8,6 C -7,2 C
11.12.2019 02:21 -7,1 C 90 % 1023,6 hPa 0,0 l/m 0,0 km/h (0 Bft) S 179 -8,5 C -7,1 C
11.12.2019 02:20 -7,1 C 90 % 1023,6 hPa 0,0 l/m 0,0 km/h (0 Bft) S 179 -8,5 C -7,1 C
11.12.2019 02:19 -7,2 C 90 % 1023,5 hPa 0,0 l/m 0,0 km/h (0 Bft) S 179 -8,6 C -7,2 C
11.12.2019 02:18 -7,2 C 90 % 1023,6 hPa 0,0 l/m 0,0 km/h (0 Bft) S 179 -8,6 C -7,2 C
11.12.2019 02:17 -7,2 C 90 % 1023,6 hPa 0,0 l/m 0,0 km/h (0 Bft) S 179 -8,6 C -7,2 C
11.12.2019 02:16 -7,2 C 89 % 1023,6 hPa 0,0 l/m 0,0 km/h (0 Bft) S 179 -8,7 C -7,2 C
11.12.2019 02:13 -7,1 C 90 % 1023,8 hPa 0,0 l/m 0,0 km/h (0 Bft) S 179 -8,5 C -7,1 C
11.12.2019 02:12 -7,1 C 90 % 1023,8 hPa 0,0 l/m 0,0 km/h (0 Bft) S 179 -8,5 C -7,1 C
11.12.2019 02:11 -7,1 C 90 % 1023,9 hPa 0,0 l/m 0,0 km/h (0 Bft) S 179 -8,5 C -7,1 C
11.12.2019 02:10 -7,1 C 90 % 1023,8 hPa 0,0 l/m 0,0 km/h (0 Bft) S 179 -8,5 C -7,1 C
11.12.2019 02:09 -7,0 C 90 % 1023,7 hPa 0,0 l/m 0,0 km/h (0 Bft) S 179 -8,4 C -7,0 C
11.12.2019 02:08 -7,0 C 90 % 1023,8 hPa 0,0 l/m 0,0 km/h (0 Bft) S 179 -8,4 C -7,0 C
11.12.2019 02:07 -7,0 C 90 % 1023,8 hPa 0,0 l/m 0,0 km/h (0 Bft) S 179 -8,4 C -7,0 C
11.12.2019 02:06 -7,0 C 90 % 1023,8 hPa 0,0 l/m 0,0 km/h (0 Bft) S 179 -8,4 C -7,0 C
11.12.2019 02:05 -7,0 C 90 % 1023,8 hPa 0,0 l/m 0,0 km/h (0 Bft) S 179 -8,4 C -7,0 C
11.12.2019 02:04 -7,0 C 90 % 1023,8 hPa 0,0 l/m 0,0 km/h (0 Bft) S 179 -8,4 C -7,0 C
11.12.2019 02:03 -7,0 C 90 % 1023,8 hPa 0,0 l/m 0,0 km/h (0 Bft) S 179 -8,4 C -7,0 C
11.12.2019 02:02 -7,0 C 90 % 1023,8 hPa 0,0 l/m 0,0 km/h (0 Bft) S 179 -8,4 C -7,0 C
11.12.2019 02:01 -7,0 C 90 % 1023,8 hPa 0,0 l/m 0,0 km/h (0 Bft) S 179 -8,4 C -7,0 C
11.12.2019 02:00 -7,0 C 90 % 1023,7 hPa 0,0 l/m 0,0 km/h (0 Bft) S 179 -8,4 C -7,0 C
11.12.2019 01:59 -7,1 C 90 % 1023,7 hPa 0,0 l/m 0,0 km/h (0 Bft) S 179 -8,5 C -7,1 C
11.12.2019 01:58 -7,1 C 90 % 1023,8 hPa 0,0 l/m 0,0 km/h (0 Bft) S 179 -8,5 C -7,1 C
11.12.2019 01:57 -7,1 C 90 % 1023,8 hPa 0,0 l/m 0,0 km/h (0 Bft) S 179 -8,5 C -7,1 C
11.12.2019 01:56 -7,1 C 90 % 1023,8 hPa 0,0 l/m 0,0 km/h (0 Bft) S 179 -8,5 C -7,1 C
11.12.2019 01:55 -7,1 C 90 % 1023,8 hPa 0,0 l/m 0,0 km/h (0 Bft) S 179 -8,5 C -7,1 C
11.12.2019 01:54 -7,1 C 89 % 1023,8 hPa 0,0 l/m 0,0 km/h (0 Bft) S 179 -8,6 C -7,1 C
11.12.2019 01:53 -7,1 C 89 % 1023,8 hPa 0,0 l/m 0,0 km/h (0 Bft) S 179 -8,6 C -7,1 C
11.12.2019 01:52 -7,1 C 89 % 1023,9 hPa 0,0 l/m 0,0 km/h (0 Bft) S 179 -8,6 C -7,1 C
11.12.2019 01:51 -7,1 C 89 % 1023,8 hPa 0,0 l/m 0,0 km/h (0 Bft) S 179 -8,6 C -7,1 C
11.12.2019 01:50 -7,1 C 89 % 1023,9 hPa 0,0 l/m 0,0 km/h (0 Bft) S 179 -8,6 C -7,1 C
11.12.2019 01:49 -7,0 C 89 % 1023,9 hPa 0,0 l/m 0,0 km/h (0 Bft) S 179 -8,5 C -7,0 C
11.12.2019 01:48 -7,0 C 89 % 1023,9 hPa 0,0 l/m 0,0 km/h (0 Bft) S 179 -8,5 C -7,0 C
11.12.2019 01:47 -7,0 C 89 % 1023,9 hPa 0,0 l/m 0,0 km/h (0 Bft) S 179 -8,5 C -7,0 C
11.12.2019 01:46 -6,9 C 89 % 1023,9 hPa 0,0 l/m 0,0 km/h (0 Bft) S 179 -8,4 C -6,9 C
11.12.2019 01:45 -6,9 C 89 % 1023,9 hPa 0,0 l/m 0,0 km/h (0 Bft) S 179 -8,4 C -6,9 C
11.12.2019 01:44 -6,9 C 89 % 1024,0 hPa 0,0 l/m 0,0 km/h (0 Bft) S 179 -8,4 C -6,9 C
11.12.2019 01:43 -6,9 C 89 % 1023,9 hPa 0,0 l/m 0,0 km/h (0 Bft) S 179 -8,4 C -6,9 C
11.12.2019 01:42 -6,9 C 89 % 1023,9 hPa 0,0 l/m 0,0 km/h (0 Bft) S 179 -8,4 C -6,9 C
11.12.2019 01:41 -6,9 C 89 % 1023,9 hPa 0,0 l/m 0,0 km/h (0 Bft) S 179 -8,4 C -6,9 C
11.12.2019 01:40 -6,9 C 89 % 1023,9 hPa 0,0 l/m 0,0 km/h (0 Bft) S 179 -8,4 C -6,9 C
11.12.2019 01:39 -6,9 C 89 % 1023,9 hPa 0,0 l/m 0,0 km/h (0 Bft) S 179 -8,4 C -6,9 C
11.12.2019 01:38 -6,9 C 89 % 1023,9 hPa 0,0 l/m 0,0 km/h (0 Bft) S 179 -8,4 C -6,9 C
11.12.2019 01:37 -6,9 C 89 % 1023,9 hPa 0,0 l/m 0,0 km/h (0 Bft) S 179 -8,4 C -6,9 C
11.12.2019 01:36 -6,9 C 89 % 1023,9 hPa 0,0 l/m 0,0 km/h (0 Bft) S 179 -8,4 C -6,9 C
11.12.2019 01:35 -6,9 C 89 % 1023,9 hPa 0,0 l/m 0,0 km/h (0 Bft) S 179 -8,4 C -6,9 C
11.12.2019 01:34 -6,9 C 89 % 1024,0 hPa 0,0 l/m 0,0 km/h (0 Bft) S 179 -8,4 C -6,9 C
11.12.2019 01:33 -6,9 C 89 % 1024,0 hPa 0,0 l/m 0,0 km/h (0 Bft) S 179 -8,4 C -6,9 C
11.12.2019 01:32 -6,9 C 89 % 1024,0 hPa 0,0 l/m 0,0 km/h (0 Bft) S 179 -8,4 C -6,9 C
11.12.2019 01:30 -6,9 C 89 % 1024,1 hPa 0,0 l/m 0,0 km/h (0 Bft) S 179 -8,4 C -6,9 C
11.12.2019 01:29 -6,9 C 89 % 1024,1 hPa 0,0 l/m 0,0 km/h (0 Bft) S 179 -8,4 C -6,9 C
11.12.2019 01:28 -6,9 C 89 % 1024,1 hPa 0,0 l/m 0,0 km/h (0 Bft) S 179 -8,4 C -6,9 C
11.12.2019 01:27 -6,9 C 89 % 1024,0 hPa 0,0 l/m 0,0 km/h (0 Bft) S 179 -8,4 C -6,9 C
11.12.2019 01:26 -6,9 C 89 % 1024,1 hPa 0,0 l/m 0,0 km/h (0 Bft) S 179 -8,4 C -6,9 C
11.12.2019 01:25 -6,9 C 89 % 1024,1 hPa 0,0 l/m 0,0 km/h (0 Bft) S 179 -8,4 C -6,9 C
11.12.2019 01:24 -6,9 C 89 % 1024,1 hPa 0,0 l/m 0,0 km/h (0 Bft) S 179 -8,4 C -6,9 C
11.12.2019 01:23 -6,9 C 89 % 1024,1 hPa 0,0 l/m 0,0 km/h (0 Bft) S 179 -8,4 C -6,9 C
11.12.2019 01:22 -6,9 C 89 % 1024,1 hPa 0,0 l/m 0,0 km/h (0 Bft) S 179 -8,4 C -6,9 C
11.12.2019 01:21 -6,8 C 89 % 1024,1 hPa 0,0 l/m 0,0 km/h (0 Bft) S 179 -8,3 C -6,8 C
11.12.2019 01:20 -6,8 C 89 % 1024,1 hPa 0,0 l/m 0,0 km/h (0 Bft) S 179 -8,3 C -6,8 C
11.12.2019 01:19 -6,8 C 89 % 1024,1 hPa 0,0 l/m 0,0 km/h (0 Bft) S 179 -8,3 C -6,8 C
11.12.2019 01:18 -6,9 C 89 % 1024,1 hPa 0,0 l/m 0,0 km/h (0 Bft) S 179 -8,4 C -6,9 C
11.12.2019 01:17 -6,9 C 89 % 1024,1 hPa 0,0 l/m 0,0 km/h (0 Bft) S 179 -8,4 C -6,9 C
11.12.2019 01:16 -6,9 C 89 % 1024,1 hPa 0,0 l/m 0,0 km/h (0 Bft) S 179 -8,4 C -6,9 C
11.12.2019 01:15 -6,9 C 89 % 1024,1 hPa 0,0 l/m 0,0 km/h (0 Bft) S 179 -8,4 C -6,9 C
11.12.2019 01:14 -6,9 C 89 % 1024,1 hPa 0,0 l/m 0,0 km/h (0 Bft) S 179 -8,4 C -6,9 C
11.12.2019 01:11 -7,0 C 89 % 1024,2 hPa 0,0 l/m 0,0 km/h (0 Bft) S 179 -8,5 C -7,0 C
11.12.2019 01:09 -7,0 C 89 % 1024,2 hPa 0,0 l/m 0,0 km/h (0 Bft) S 179 -8,5 C -7,0 C
11.12.2019 01:08 -7,0 C 89 % 1024,1 hPa 0,0 l/m 0,0 km/h (0 Bft) S 179 -8,5 C -7,0 C
11.12.2019 01:07 -7,0 C 89 % 1024,2 hPa 0,0 l/m 0,0 km/h (0 Bft) S 179 -8,5 C -7,0 C
11.12.2019 01:06 -7,0 C 89 % 1024,2 hPa 0,0 l/m 0,0 km/h (0 Bft) S 179 -8,5 C -7,0 C
11.12.2019 01:04 -6,9 C 89 % 1024,2 hPa 0,0 l/m 0,0 km/h (0 Bft) S 179 -8,4 C -6,9 C
11.12.2019 01:03 -6,9 C 89 % 1024,2 hPa 0,0 l/m 0,0 km/h (0 Bft) S 179 -8,4 C -6,9 C
11.12.2019 01:02 -6,9 C 89 % 1024,2 hPa 0,0 l/m 0,0 km/h (0 Bft) S 179 -8,4 C -6,9 C
11.12.2019 01:01 -6,9 C 89 % 1024,2 hPa 0,0 l/m 0,0 km/h (0 Bft) S 179 -8,4 C -6,9 C
11.12.2019 01:00 -6,9 C 89 % 1024,2 hPa 0,0 l/m 0,0 km/h (0 Bft) S 179 -8,4 C -6,9 C
11.12.2019 00:59 -6,8 C 89 % 1024,2 hPa 0,0 l/m 0,0 km/h (0 Bft) S 179 -8,3 C -6,8 C
11.12.2019 00:58 -6,8 C 89 % 1024,3 hPa 0,0 l/m 0,0 km/h (0 Bft) S 179 -8,3 C -6,8 C
11.12.2019 00:57 -6,8 C 89 % 1024,2 hPa 0,0 l/m 0,0 km/h (0 Bft) S 179 -8,3 C -6,8 C
11.12.2019 00:56 -6,8 C 89 % 1024,2 hPa 0,0 l/m 0,0 km/h (0 Bft) S 179 -8,3 C -6,8 C
11.12.2019 00:55 -6,8 C 89 % 1024,2 hPa 0,0 l/m 0,0 km/h (0 Bft) S 179 -8,3 C -6,8 C
11.12.2019 00:54 -6,8 C 89 % 1024,2 hPa 0,0 l/m 0,0 km/h (0 Bft) S 179 -8,3 C -6,8 C
11.12.2019 00:53 -6,8 C 89 % 1024,2 hPa 0,0 l/m 0,0 km/h (0 Bft) S 179 -8,3 C -6,8 C
11.12.2019 00:52 -6,8 C 89 % 1024,2 hPa 0,0 l/m 0,0 km/h (0 Bft) S 179 -8,3 C -6,8 C
11.12.2019 00:51 -6,8 C 89 % 1024,2 hPa 0,0 l/m 0,0 km/h (0 Bft) S 179 -8,3 C -6,8 C
11.12.2019 00:50 -6,8 C 89 % 1024,2 hPa 0,0 l/m 0,0 km/h (0 Bft) S 179 -8,3 C -6,8 C
11.12.2019 00:49 -6,8 C 89 % 1024,2 hPa 0,0 l/m 0,0 km/h (0 Bft) S 179 -8,3 C -6,8 C
11.12.2019 00:48 -6,7 C 89 % 1024,2 hPa 0,0 l/m 0,0 km/h (0 Bft) S 179 -8,2 C -6,7 C
11.12.2019 00:47 -6,7 C 89 % 1024,2 hPa 0,0 l/m 0,0 km/h (0 Bft) S 179 -8,2 C -6,7 C
11.12.2019 00:46 -6,7 C 89 % 1024,2 hPa 0,0 l/m 0,0 km/h (0 Bft) S 179 -8,2 C -6,7 C
11.12.2019 00:45 -6,6 C 89 % 1024,2 hPa 0,0 l/m 0,0 km/h (0 Bft) S 179 -8,1 C -6,6 C
11.12.2019 00:44 -6,5 C 89 % 1024,2 hPa 0,0 l/m 0,0 km/h (0 Bft) S 179 -8,0 C -6,5 C
11.12.2019 00:43 -6,4 C 89 % 1024,3 hPa 0,0 l/m 0,0 km/h (0 Bft) S 179 -7,9 C -6,4 C
11.12.2019 00:42 -6,4 C 89 % 1024,3 hPa 0,0 l/m 0,0 km/h (0 Bft) S 179 -7,9 C -6,4 C
11.12.2019 00:41 -6,4 C 90 % 1024,2 hPa 0,0 l/m 0,0 km/h (0 Bft) S 179 -7,8 C -6,4 C
11.12.2019 00:40 -6,4 C 90 % 1024,2 hPa 0,0 l/m 0,0 km/h (0 Bft) S 179 -7,8 C -6,4 C
11.12.2019 00:39 -6,4 C 90 % 1024,2 hPa 0,0 l/m 0,0 km/h (0 Bft) S 179 -7,8 C -6,4 C
11.12.2019 00:38 -6,4 C 90 % 1024,2 hPa 0,0 l/m 0,0 km/h (0 Bft) S 179 -7,8 C -6,4 C
11.12.2019 00:37 -6,4 C 90 % 1024,2 hPa 0,0 l/m 0,0 km/h (0 Bft) S 179 -7,8 C -6,4 C
11.12.2019 00:36 -6,4 C 90 % 1024,3 hPa 0,0 l/m 0,0 km/h (0 Bft) S 179 -7,8 C -6,4 C
11.12.2019 00:35 -6,4 C 90 % 1024,2 hPa 0,0 l/m 0,0 km/h (0 Bft) S 179 -7,8 C -6,4 C
11.12.2019 00:34 -6,5 C 89 % 1024,2 hPa 0,0 l/m 0,0 km/h (0 Bft) S 179 -8,0 C -6,5 C
11.12.2019 00:33 -6,5 C 89 % 1024,2 hPa 0,0 l/m 0,0 km/h (0 Bft) S 179 -8,0 C -6,5 C
11.12.2019 00:32 -6,5 C 89 % 1024,2 hPa 0,0 l/m 0,0 km/h (0 Bft) S 179 -8,0 C -6,5 C
11.12.2019 00:31 -6,5 C 89 % 1024,2 hPa 0,0 l/m 0,0 km/h (0 Bft) S 179 -8,0 C -6,5 C
11.12.2019 00:30 -6,6 C 89 % 1024,3 hPa 0,0 l/m 0,0 km/h (0 Bft) S 179 -8,1 C -6,6 C
11.12.2019 00:29 -6,6 C 89 % 1024,2 hPa 0,0 l/m 0,0 km/h (0 Bft) S 179 -8,1 C -6,6 C
11.12.2019 00:28 -6,6 C 89 % 1024,3 hPa 0,0 l/m 0,0 km/h (0 Bft) S 179 -8,1 C -6,6 C
11.12.2019 00:27 -6,6 C 89 % 1024,3 hPa 0,0 l/m 0,0 km/h (0 Bft) S 179 -8,1 C -6,6 C
11.12.2019 00:26 -6,6 C 89 % 1024,3 hPa 0,0 l/m 0,0 km/h (0 Bft) S 179 -8,1 C -6,6 C
11.12.2019 00:25 -6,6 C 89 % 1024,3 hPa 0,0 l/m 0,0 km/h (0 Bft) S 179 -8,1 C -6,6 C
11.12.2019 00:24 -6,6 C 89 % 1024,3 hPa 0,0 l/m 0,0 km/h (0 Bft) S 179 -8,1 C -6,6 C
11.12.2019 00:23 -6,6 C 89 % 1024,2 hPa 0,0 l/m 0,0 km/h (0 Bft) S 179 -8,1 C -6,6 C
11.12.2019 00:22 -6,6 C 89 % 1024,3 hPa 0,0 l/m 0,0 km/h (0 Bft) S 179 -8,1 C -6,6 C
11.12.2019 00:21 -6,5 C 89 % 1024,3 hPa 0,0 l/m 0,0 km/h (0 Bft) S 179 -8,0 C -6,5 C
11.12.2019 00:20 -6,5 C 89 % 1024,3 hPa 0,0 l/m 0,0 km/h (0 Bft) S 179 -8,0 C -6,5 C
11.12.2019 00:19 -6,5 C 89 % 1024,3 hPa 0,0 l/m 0,0 km/h (0 Bft) S 179 -8,0 C -6,5 C
11.12.2019 00:18 -6,5 C 89 % 1024,3 hPa 0,0 l/m 0,0 km/h (0 Bft) S 179 -8,0 C -6,5 C
11.12.2019 00:17 -6,4 C 89 % 1024,4 hPa 0,0 l/m 0,0 km/h (0 Bft) S 179 -7,9 C -6,4 C
11.12.2019 00:16 -6,4 C 89 % 1024,4 hPa 0,0 l/m 0,0 km/h (0 Bft) S 179 -7,9 C -6,4 C
11.12.2019 00:15 -6,4 C 89 % 1024,4 hPa 0,0 l/m 0,0 km/h (0 Bft) S 179 -7,9 C -6,4 C
11.12.2019 00:14 -6,4 C 89 % 1024,5 hPa 0,0 l/m 0,0 km/h (0 Bft) S 179 -7,9 C -6,4 C
11.12.2019 00:12 -6,4 C 89 % 1024,5 hPa 0,0 l/m 0,0 km/h (0 Bft) S 179 -7,9 C -6,4 C
11.12.2019 00:11 -6,4 C 89 % 1024,4 hPa 0,0 l/m 0,0 km/h (0 Bft) S 179 -7,9 C -6,4 C
11.12.2019 00:08 -6,3 C 89 % 1024,4 hPa 0,0 l/m 0,0 km/h (0 Bft) S 179 -7,8 C -6,3 C
11.12.2019 00:07 -6,2 C 89 % 1024,5 hPa 0,0 l/m 0,0 km/h (0 Bft) S 179 -7,7 C -6,2 C
11.12.2019 00:06 -6,2 C 89 % 1024,5 hPa 0,0 l/m 0,0 km/h (0 Bft) S 179 -7,7 C -6,2 C
11.12.2019 00:05 -6,2 C 89 % 1024,5 hPa 0,0 l/m 0,0 km/h (0 Bft) S 179 -7,7 C -6,2 C
11.12.2019 00:04 -6,1 C 89 % 1024,5 hPa 0,0 l/m 0,0 km/h (0 Bft) S 179 -7,6 C -6,1 C
11.12.2019 00:03 -6,1 C 89 % 1024,5 hPa 0,0 l/m 0,0 km/h (0 Bft) S 179 -7,6 C -6,1 C
11.12.2019 00:02 -6,1 C 89 % 1024,5 hPa 0,0 l/m 0,0 km/h (0 Bft) S 179 -7,6 C -6,1 C
11.12.2019 00:01 -6,0 C 89 % 1024,6 hPa 0,0 l/m 0,0 km/h (0 Bft) S 179 -7,5 C -6,0 C
11.12.2019 00:00 -6,0 C 89 % 1024,5 hPa 0,0 l/m 0,0 km/h (0 Bft) S 179 -7,5 C -6,0 C
_ Min-Zeit 06:04 13:02 20:42 - 00:00 - - 05:34 06:04
Minimum _ -8,6 C 44 % 1009,6 hPa - 0,0 km/h (0 Bft) - - -10,0 C -8,6 C
_ Max-Zeit 13:02 07:23 00:01 00:00 11:46 - - 10:23 13:02
Maximum _ 2,4 C 91 % 1024,6 hPa 0,0 l/m 14,4 km/h
SO (3 Bft)
- - -1,8 C 2,4 C
Durchschnitt _ -3,8 C 80 % 1017,4 hPa #0,0 l/m 0,1 km/h (0 Bft) O - -6,9 C -3,8 C